GFSNGP_con_lsi_042.txt.gz
Lid_Strength_Index
12 11 11 11 11 11 12 12 14 13 12 10 9 8 8 8 8 7 7 8 6 5 5 5 4 4 4 3 3 2 3 3 3 2 1 2 4 4 5 5 5 6 6 6
14 11 10 12 11 11 10 11 11 11 11 8 6 7 7 8 7 7 7 7 5 5 5 4 4 5 5 4 4 3 3 3 3 4 4 5 6 7 7 7 7 8 8 7
17 12 12 14 12 11 10 10 10 13 10 8 8 8 8 7 7 7 7 7 7 5 4 4 4 4 5 5 5 5 5 5 4 5 5 6 7 7 7 8 8 8 7 7
16 14 20 12 9 9 10 10 10 10 10 8 7 6 7 7 6 7 7 7 5 4 4 5 5 6 6 6 6 7 7 7 7 7 6 7 8 9 10 9 8 10 10 9
17 18 14 12 10 11 11 11 9 10 9 9 8 10 8 6 5 6 7 5 4 4 5 6 6 7 7 7 7 8 7 8 8 8 9 9 10 10 10 10 10 10 9 9
15 18 20 13 9 7 8 14 9 8 8 9 9 13 11 7 6 7 5 4 5 6 6 7 8 8 8 9 9 9 9 10 9 10 10 10 10 10 10 10 10 9 10 10
16 17 15 10 8 7 14 13 8 7 8 8 10 9 8 6 6 5 5 6 7 6 6 9 9 8 9 10 10 9 9 9 9 9 9 9 9 9 10 10 10 11 12 12
15 17 18 8 8 12 10 7 7 7 8 8 8 7 7 6 6 6 7 7 7 8 9 10 9 9 10 10 10 9 9 9 9 8 8 9 9 9 9 10 12 13 14 15
13 13 8 7 8 7 6 7 7 7 6 7 7 7 7 7 6 6 6 7 7 8 9 9 8 7 9 9 8 8 8 9 8 8 8 9 10 10 11 12 13 14 15 17
12 9 8 7 7 6 6 6 6 6 6 6 7 7 7 7 7 7 8 8 8 8 9 9 8 8 8 8 8 8 9 9 11 13 13 13 13 13 14 15 15 14 15 17
11 9 8 7 6 6 6 5 5 5 5 6 7 7 7 7 7 7 8 7 7 8 8 9 8 8 9 9 9 11 12 13 15 15 15 16 17 16 16 15 15 16 16 16
12 8 9 8 6 6 6 6 5 6 5 5 5 6 7 7 8 8 8 8 9 9 9 9 9 10 10 10 11 13 14 15 16 16 16 16 17 17 14 15 15 15 16 17
9 6 6 6 6 5 6 6 5 5 5 6 5 6 7 8 8 9 8 9 10 12 13 14 13 13 12 12 13 14 15 15 16 16 16 16 16 17 18 17 16 16 16 17
8 6 7 7 7 6 6 6 6 6 6 7 6 7 8 9 9 10 11 13 14 15 16 16 16 16 15 15 15 15 15 15 16 16 16 16 17 18 18 18 18 18 17 17
9 8 8 6 7 8 8 7 9 11 11 11 9 9 9 12 14 15 15 16 17 17 17 17 18 17 16 16 16 17 18 18 17 18 17 17 17 17 17 17 17 18 17 18
8 9 9 10 11 12 12 12 13 15 15 15 16 16 16 17 17 18 17 17 19 19 18 19 18 18 17 17 17 17 18 18 18 18 18 18 18 18 18 18 18 19 19 19
11 11 11 11 13 14 14 14 15 16 17 17 18 18 18 19 19 20 19 19 19 19 19 19 19 18 17 18 18 18 18 19 19 18 19 19 19 19 19 19 19 19 20 21
12 12 12 13 14 15 16 16 17 17 17 18 18 18 19 19 19 19 20 20 21 21 20 20 19 19 19 19 19 19 19 19 20 20 20 21 20 20 20 20 20 20 20 20
15 15 15 16 16 16 16 17 17 17 17 17 18 19 19 20 20 20 19 21 21 22 21 20 19 19 19 19 19 19 19 20 20 20 21 21 21 21 21 21 20 20 20 20
16 16 16 16 16 16 17 18 18 18 18 19 19 20 20 21 20 20 20 22 21 21 20 20 20 20 20 20 20 20 20 21 21 21 21 21 21 22 21 21 21 22 23 22
18 18 18 19 19 18 18 19 19 20 19 19 20 20 20 20 20 20 22 23 21 21 21 21 21 21 20 20 20 21 20 21 21 21 22 22 23 23 24 24 25 25 26 26
19 19 19 19 20 20 19 19 19 19 20 20 20 20 21 21 21 21 21 22 22 22 22 22 22 21 20 20 20 21 21 22 22 22 23 23 24 25 25 26 26 27 29 32
19 19 19 19 20 20 19 20 20 19 20 21 21 21 21 21 20 22 23 21 21 22 22 22 21 22 22 22 23 23 24 24 25 26 27 27 27 27 27 27 27 27 29 27
19 18 19 18 18 19 20 20 19 19 20 19 20 20 20 22 21 20 21 21 22 23 23 23 23 23 23 24 25 26 26 26 26 28 27 30 33 33 31 33 29 30 27 27
20 20 20 20 20 21 19 19 19 19 19 20 20 19 19 19 21 21 21 21 21 22 23 23 24 25 27 27 27 28 29 30 30 32 32 33 34 34 34 32 30 29 30 30
20 20 21 21 21 20 20 20 20 19 20 21 20 20 20 19 19 19 20 21 21 22 22 22 23 25 26 26 28 30 31 30 29 28 32 33 34 33 32 31 32 32 33 34
20 20 20 20 21 21 21 21 22 22 22 23 23 22 22 22 22 22 24 24 25 25 27 29 28 28 28 30 30 31 30 30 28 29 33 34 33 32 32 33 35 35 36 34

GFSNGP_con_lsi_048.txt.gz
Lid_Strength_Index
13 12 12 12 12 12 14 13 16 14 14 12 11 10 9 8 8 8 8 9 8 7 6 5 5 4 3 3 3 3 4 4 4 3 3 3 3 3 2 2 2 2 2 3
15 12 12 13 12 12 12 12 13 12 13 10 9 10 10 9 8 8 8 8 8 7 7 7 5 4 3 3 3 2 3 3 3 3 3 3 3 3 3 2 2 2 3 5
17 13 13 16 13 12 12 12 12 14 12 10 10 10 9 9 9 8 8 8 8 7 6 6 6 5 4 3 4 3 3 3 3 3 3 3 3 2 3 3 5 6 6 7
16 15 20 14 10 10 12 11 10 11 11 9 9 8 8 8 8 8 8 7 8 8 8 6 5 4 4 4 4 4 4 4 4 4 3 3 4 5 7 7 7 8 8 8
18 18 14 13 11 11 12 13 10 11 9 8 8 10 10 9 8 7 7 6 6 6 7 6 4 4 4 4 5 5 4 4 4 4 6 7 7 8 9 8 9 9 10 9
15 19 20 14 9 8 9 14 9 9 9 9 8 13 10 8 8 8 8 8 7 8 6 5 5 4 5 5 4 5 6 6 7 7 8 8 9 10 10 10 12 12 12 12
15 17 15 10 8 8 16 14 8 8 8 8 10 9 8 6 7 8 8 8 6 5 5 5 5 4 6 6 6 7 8 8 9 9 10 11 11 11 12 13 14 15 15 15
15 17 18 8 9 12 9 8 8 8 7 8 7 7 7 7 8 8 7 7 7 6 7 6 5 6 7 10 10 10 10 11 11 11 11 11 12 12 14 14 15 16 16 16
13 13 9 8 8 7 6 7 7 7 6 7 7 7 7 8 8 8 8 8 7 8 9 8 8 8 11 12 11 11 11 12 12 12 12 11 12 13 14 14 14 15 15 16
12 10 8 7 6 6 6 6 6 6 6 6 7 7 7 8 8 9 9 9 8 9 10 10 10 10 11 10 11 11 13 14 14 13 14 14 14 13 13 14 15 15 15 17
11 9 8 7 7 6 6 5 5 5 5 6 6 6 7 8 9 9 9 9 9 11 12 12 11 11 11 11 12 14 15 15 15 15 15 16 16 15 14 14 13 14 15 16
13 9 9 8 7 8 7 7 7 5 6 5 8 8 7 9 9 9 10 11 12 12 13 14 14 14 13 13 13 14 16 16 16 16 16 16 16 17 15 15 15 15 16 17
9 8 8 8 7 9 9 9 9 10 11 13 10 9 10 12 13 13 13 14 14 15 15 16 16 16 15 14 14 16 17 17 17 17 17 18 18 18 19 18 16 16 17 17
7 8 8 8 10 10 10 11 11 13 14 15 15 14 15 16 16 17 17 16 16 16 17 17 17 17 16 16 16 17 17 17 17 17 18 18 18 18 18 19 19 19 17 17
10 9 8 9 11 12 12 13 14 15 16 17 16 17 17 18 18 17 17 17 17 17 17 17 17 18 17 16 17 17 17 17 17 18 17 17 17 17 17 18 18 19 18 18
11 9 9 10 12 13 14 15 16 17 16 17 18 18 18 18 19 19 19 18 19 20 19 19 19 18 17 17 18 18 18 18 18 18 18 18 18 19 19 19 19 19 20 20
13 12 13 13 14 15 16 15 16 17 17 17 18 18 18 19 19 20 20 20 21 21 21 21 21 19 19 18 18 19 20 20 20 20 20 19 19 20 19 20 21 21 22 21
13 14 14 15 15 16 17 17 17 17 18 18 19 20 21 21 22 21 21 21 21 21 20 20 20 20 20 19 19 20 20 20 20 20 20 21 21 21 21 21 21 21 22 23
15 16 16 16 16 17 17 18 18 18 19 19 20 22 22 22 22 22 21 21 22 22 21 20 19 20 20 19 19 20 21 21 20 20 21 22 22 22 23 23 23 23 23 23
17 17 17 18 18 18 19 19 19 19 19 20 21 22 23 22 22 22 23 24 23 22 20 20 20 20 20 20 19 20 20 21 21 22 23 23 24 25 24 25 25 26 29 28
19 18 19 19 20 19 19 19 20 21 21 21 22 23 23 23 23 23 24 25 23 22 22 22 22 22 22 22 22 23 23 24 25 25 26 27 28 28 30 32 32 33 34 33
19 19 19 19 20 20 20 20 20 21 21 21 21 22 23 24 24 24 23 24 23 23 23 23 23 24 23 23 24 25 25 26 27 27 28 30 32 34 37 37 37 37 36 34
19 19 19 20 21 21 20 21 21 21 22 22 23 23 23 23 22 24 25 23 23 24 24 26 27 27 27 27 28 29 29 30 30 32 34 36 38 39 38 37 37 37 36 34
19 19 19 19 19 20 21 21 21 21 21 22 23 23 23 24 24 23 24 25 27 27 27 28 29 29 30 31 32 33 34 35 37 38 37 38 41 40 39 38 35 37 37 36
20 20 20 20 21 21 20 20 21 21 21 21 21 21 21 21 24 23 24 25 25 27 30 32 32 33 35 37 37 37 37 38 38 38 38 39 39 38 39 38 38 38 38 38
21 21 21 21 21 21 21 22 23 23 22 24 25 25 25 24 24 25 27 28 28 30 32 37 38 37 37 36 38 37 36 34 35 36 38 38 37 36 37 36 38 38 39 39
22 21 22 22 23 23 24 24 26 28 30 31 28 27 26 28 29 29 33 33 34 35 37 37 36 34 35 35 34 35 35 35 36 35 39 38 38 39 39 39 40 40 41 40

GFSNGP_con_lsi_051.txt.gz
Lid_Strength_Index
11 11 11 12 11 11 12 11 14 12 12 9 8 8 7 7 6 6 6 5 6 5 4 3 3 3 3 2 2 3 3 3 3 3 3 3 2 2 2 2 2 1 1 1
14 11 11 13 11 11 11 11 11 11 11 7 7 7 8 7 7 7 6 5 5 6 5 4 3 3 3 2 2 2 2 3 3 2 3 2 2 2 2 2 1 1 1 1
16 13 12 15 12 11 10 9 10 12 10 7 8 8 7 6 6 7 6 6 5 5 5 4 4 3 3 3 2 2 2 2 2 2 2 2 2 2 2 2 1 1 2 2
16 14 19 11 9 9 10 9 8 8 8 7 7 6 6 5 6 6 6 5 5 5 4 4 3 3 2 2 2 2 3 2 2 2 2 2 2 2 2 2 2 3 5 5
17 16 13 11 10 10 11 12 9 9 8 7 7 7 7 6 5 5 6 5 5 4 4 4 4 3 3 3 3 3 3 3 2 2 2 2 2 5 6 7 8 9 9 9
15 17 19 11 9 7 8 13 7 8 8 7 7 11 8 5 5 5 4 4 5 5 5 5 4 3 3 3 3 3 3 2 2 2 4 5 7 9 10 10 12 13 13 12
15 16 14 9 7 7 14 11 7 7 7 7 8 7 6 5 5 4 5 5 5 5 5 4 3 3 3 3 4 3 4 5 5 5 7 9 10 11 12 13 14 15 15 15
14 16 18 7 8 11 8 6 6 6 6 7 6 6 5 5 5 5 6 5 4 4 4 4 3 3 4 5 6 6 8 9 10 10 10 11 12 12 13 13 15 16 17 17
12 12 7 6 7 6 5 6 6 6 5 5 6 6 5 6 5 7 7 6 6 6 6 6 5 5 7 8 8 9 10 11 11 11 12 12 13 13 14 14 15 16 16 18
11 8 8 6 5 5 5 6 5 5 5 5 6 5 6 6 7 7 7 7 7 7 8 8 7 7 8 9 9 11 13 14 14 14 14 13 13 13 13 14 14 15 16 18
10 8 7 6 6 7 7 6 7 7 5 8 8 8 7 7 9 9 9 9 9 10 11 11 11 11 11 11 12 14 14 15 15 15 15 16 16 15 14 13 13 14 15 16
11 9 9 8 6 7 8 8 8 9 9 10 11 11 10 13 13 13 13 12 12 13 13 14 13 14 14 13 12 13 14 14 14 15 15 15 16 17 15 15 16 16 16 17
9 8 8 7 6 9 9 10 10 11 11 12 12 13 13 14 15 15 15 15 16 16 16 16 15 15 15 15 14 14 15 15 16 16 16 17 17 18 19 17 16 16 16 16
8 8 7 7 9 9 10 11 12 13 13 14 14 14 15 15 15 16 17 17 16 16 16 17 17 17 16 16 16 16 17 17 17 17 17 18 18 18 17 18 18 18 17 16
10 9 9 8 10 11 11 12 13 14 15 15 15 16 16 18 18 18 18 17 18 18 18 18 18 18 17 17 17 17 18 18 17 17 17 17 16 17 17 17 17 18 18 18
11 10 10 11 13 13 13 13 14 15 15 16 17 17 18 18 19 19 19 19 20 21 20 20 20 19 18 18 18 18 18 19 18 18 18 18 18 18 18 18 18 18 19 19
13 13 13 13 14 15 15 14 15 16 16 17 18 18 19 19 20 20 20 20 21 21 20 21 20 19 19 19 19 19 19 19 19 19 19 19 19 19 19 19 19 20 20 20
13 14 14 14 15 16 17 16 17 18 18 18 19 20 20 21 22 22 21 20 21 21 20 19 19 19 19 19 19 19 19 19 19 20 20 19 19 19 19 20 20 21 21 21
15 15 15 15 16 16 17 18 18 19 19 20 20 21 21 21 22 21 21 21 22 22 21 19 19 19 19 19 19 19 19 20 20 20 20 21 21 20 21 21 22 22 22 23
17 17 17 18 17 18 19 19 19 20 19 20 21 21 22 22 21 22 22 23 23 22 20 20 21 21 21 21 21 21 21 21 22 22 22 22 23 23 23 24 23 23 23 23
18 18 19 19 20 19 19 19 20 21 21 21 22 23 23 23 22 22 23 24 23 22 22 23 22 22 22 22 22 22 22 23 24 24 24 24 24 24 24 24 23 23 23 23
19 19 20 20 20 21 20 20 20 20 21 21 21 22 22 23 23 24 23 24 24 23 23 23 23 25 24 23 23 23 24 24 24 24 24 24 24 24 25 25 25 25 24 24
19 19 19 20 21 21 20 21 21 21 22 22 23 23 23 23 22 24 25 23 23 24 24 25 26 27 26 24 24 24 25 25 25 25 25 25 25 25 25 25 25 24 24 23
19 19 19 19 19 20 21 20 20 20 21 22 22 22 22 24 23 23 23 25 26 26 25 26 27 27 26 25 25 25 25 25 25 25 25 27 25 25 24 24 24 23 24 24
19 19 19 19 20 20 21 21 21 22 22 22 22 21 21 21 22 23 23 24 24 25 25 29 29 28 25 25 25 25 25 24 24 24 24 24 24 24 23 24 25 24 25 24
20 21 21 21 20 20 20 20 21 21 21 23 23 23 23 23 23 23 24 25 25 26 26 26 26 25 24 24 24 24 23 22 22 23 23 23 24 23 24 25 25 25 26 26
20 20 20 21 21 22 22 22 23 24 24 24 24 23 24 24 25 24 26 25 25 25 25 25 24 24 23 22 22 22 22 22 26 23 24 24 24 25 26 26 26 26 26 27

GFSNGP_con_lsi_054.txt.gz
Lid_Strength_Index
10 10 10 10 10 10 11 11 13 11 10 8 7 7 5 5 4 5 4 4 3 3 3 2 2 2 2 2 1 1 2 2 2 1 1 1 1 1 1 1 1 1 1 1
12 10 10 11 10 10 9 9 9 9 10 6 6 5 6 6 5 5 4 4 3 3 3 3 2 2 2 2 2 1 2 2 1 1 1 1 1 1 1 1 1 1 1 1
14 11 11 13 11 10 9 8 9 10 8 7 7 7 6 5 5 5 5 4 4 4 3 2 2 2 2 2 1 2 2 2 1 1 1 1 1 1 1 1 1 1 1 1
13 13 17 10 7 8 8 8 7 7 7 6 6 5 5 4 5 5 5 4 4 3 3 2 2 1 1 1 2 2 2 2 2 2 2 1 1 1 1 1 1 1 1 1
15 14 11 10 9 9 9 10 7 7 6 6 5 5 5 4 4 4 4 3 3 2 2 2 2 2 2 2 2 2 2 2 2 2 2 2 2 2 1 2 2 3 4 5
13 15 17 10 7 6 7 11 6 6 7 6 6 9 7 4 3 3 3 3 3 2 2 2 2 2 3 2 2 2 2 2 1 1 2 2 2 2 4 6 11 12 13 12
13 15 12 7 6 6 13 12 6 6 6 6 7 6 4 4 3 3 3 3 3 3 3 2 2 2 3 2 3 2 2 2 2 1 2 2 5 8 11 13 14 15 15 15
12 15 17 6 7 10 8 6 5 5 5 5 5 5 4 4 4 3 3 4 4 4 3 2 2 2 3 3 2 2 2 3 5 6 7 8 10 12 12 14 15 15 16 17
10 11 7 6 6 5 5 6 5 5 5 5 5 5 4 5 4 4 4 5 5 6 6 6 4 3 3 5 5 6 7 9 10 10 11 11 12 13 14 14 15 16 16 17
9 7 6 5 5 5 4 5 4 4 4 4 5 5 5 4 5 6 7 8 9 9 10 11 10 9 8 8 8 10 11 12 13 13 13 13 13 13 14 15 15 16 17 18
8 6 6 5 5 5 5 4 5 4 5 5 6 5 6 6 8 9 11 12 12 12 13 13 12 12 11 11 11 13 14 15 15 16 16 17 16 15 15 14 14 16 17 17
10 7 7 7 5 6 6 6 6 7 7 7 7 8 8 9 9 12 13 14 14 14 15 15 15 14 13 12 12 14 16 16 16 16 16 16 17 18 16 16 16 17 17 17
7 6 6 5 5 7 7 7 8 8 9 10 9 9 9 10 12 13 15 15 16 16 16 16 16 16 15 15 15 15 17 17 16 16 16 17 17 18 19 17 17 16 17 16
8 9 7 8 8 8 9 9 9 9 10 11 11 11 12 13 13 15 17 17 17 18 18 17 18 18 16 15 16 17 17 17 17 17 17 17 17 17 17 18 19 18 17 17
10 9 10 9 10 10 10 10 10 11 11 12 13 13 14 16 16 17 17 17 18 19 18 18 19 19 17 17 17 17 17 17 16 16 16 16 16 16 16 17 18 19 19 18
10 9 9 11 11 12 12 13 12 14 14 14 15 15 17 17 17 18 18 19 20 20 20 20 20 19 17 17 17 17 17 17 17 17 17 17 16 17 17 18 18 19 19 18
11 10 11 11 12 14 15 14 15 16 16 16 17 16 16 17 18 19 19 19 20 19 19 19 19 18 17 17 17 17 17 18 17 17 17 17 17 17 17 18 19 19 20 19
12 12 13 13 13 14 15 15 16 16 17 17 18 18 19 19 19 19 19 19 20 20 19 18 17 17 17 16 16 16 17 17 17 18 18 18 18 18 18 18 19 19 20 20
14 14 14 15 14 15 16 17 18 18 18 18 19 20 20 20 20 20 20 20 21 21 20 19 19 19 18 18 17 17 17 17 18 18 18 19 19 19 19 20 20 20 20 20
16 16 16 17 16 17 18 18 18 19 19 19 19 20 20 20 20 20 21 22 22 21 20 20 19 19 19 19 18 18 18 19 20 20 20 19 20 20 21 22 21 20 20 21
17 18 18 19 19 18 19 19 19 20 20 20 21 21 22 22 21 20 21 22 22 21 21 21 21 20 20 20 19 19 20 20 20 21 21 21 21 21 21 21 21 21 21 20
18 19 19 19 19 20 19 19 19 20 20 20 20 20 21 22 22 23 23 22 22 22 22 22 22 23 22 21 20 21 21 21 21 21 22 22 21 21 21 21 21 21 21 21
18 18 19 19 19 19 19 19 19 20 20 21 21 21 20 20 20 21 22 21 21 22 22 23 24 24 23 22 21 22 22 22 22 22 21 21 21 21 22 22 22 21 21 21
17 18 18 18 17 18 19 18 18 19 20 20 20 20 19 20 21 20 21 23 24 23 23 23 23 23 22 21 21 21 21 21 22 21 22 23 21 22 22 22 21 20 20 20
18 17 17 17 18 18 18 18 19 19 20 19 19 19 19 18 19 20 20 21 22 22 22 24 24 23 21 21 21 21 21 22 21 21 21 20 20 20 19 19 20 20 21 21
18 18 18 18 18 17 17 17 18 17 18 19 19 19 19 19 19 20 21 22 22 22 21 21 22 21 21 21 21 21 20 20 19 19 20 19 19 19 20 21 21 21 21 21
17 17 17 17 17 18 17 17 18 19 18 18 19 19 19 19 20 20 21 20 20 20 20 20 19 20 19 19 19 18 18 18 22 20 19 19 20 20 21 21 21 21 22 22

GFSNGP_con_lsi_057.txt.gz
Lid_Strength_Index
9 9 9 10 10 10 10 10 13 11 10 8 7 6 6 5 5 5 4 4 3 3 3 2 2 2 2 2 2 1 2 2 2 1 1 1 1 1 1 1 1 0 1 1
12 9 9 11 9 9 9 9 9 9 10 6 5 5 6 5 5 5 5 4 4 3 3 3 2 2 2 2 2 1 2 2 1 1 1 1 1 1 1 1 1 1 1 1
16 10 10 13 10 9 9 8 8 10 8 6 6 6 6 5 5 5 4 4 4 3 3 3 2 2 2 2 1 2 2 2 2 1 2 1 1 1 1 1 1 1 1 1
14 12 19 10 7 8 8 8 7 7 7 6 6 5 4 4 5 5 4 4 4 3 3 2 2 2 1 1 1 2 2 2 2 2 2 2 2 2 1 1 1 1 1 1
14 14 11 10 8 8 9 9 7 7 6 6 5 5 5 4 3 4 3 3 3 2 2 2 2 2 2 2 2 2 2 2 2 2 2 2 2 2 2 2 2 2 1 1
13 15 16 10 7 6 6 11 6 6 6 6 6 9 7 4 3 3 3 2 3 2 2 2 2 2 2 2 2 2 2 2 1 1 2 2 2 2 1 1 2 7 11 11
13 14 11 7 6 5 12 11 6 6 5 6 7 6 4 3 3 3 3 3 2 2 3 4 4 4 3 2 3 2 1 1 1 1 2 1 1 1 5 8 12 13 14 15
12 15 16 6 6 9 8 6 5 5 5 6 5 4 4 4 4 3 3 3 3 4 5 6 8 8 7 3 2 2 2 2 3 4 5 6 8 10 11 13 15 15 16 16
10 10 6 5 6 5 5 5 5 5 5 4 5 4 4 4 4 3 3 4 4 5 7 10 12 11 11 8 6 5 5 7 9 10 10 11 12 13 14 14 15 16 17 18
10 7 7 5 5 4 4 5 4 4 4 4 5 4 4 4 4 4 5 6 7 8 9 12 14 13 13 11 9 10 11 12 12 13 13 13 13 13 14 15 16 17 17 19
8 7 6 5 5 5 4 4 4 4 4 4 5 5 5 5 6 7 8 9 9 10 11 13 14 14 14 13 12 13 14 15 15 16 16 17 17 16 17 16 16 17 18 18
9 7 7 6 5 4 5 5 5 5 6 6 6 7 7 8 10 11 11 12 12 13 13 15 15 15 15 14 14 14 16 16 17 17 18 18 19 19 17 17 17 17 17 18
7 5 5 4 4 5 6 6 7 7 8 8 7 8 9 11 12 13 13 14 15 15 15 15 17 17 16 15 16 16 16 17 17 17 18 19 19 19 21 18 16 16 16 17
6 6 6 7 7 7 7 7 8 8 9 10 10 10 11 13 14 14 15 15 15 16 16 17 17 17 17 16 17 17 17 16 17 17 17 17 19 19 19 19 20 20 18 18
8 8 8 8 9 10 9 9 10 11 12 12 13 14 14 15 16 16 15 15 16 16 17 17 17 17 16 15 17 16 17 17 16 16 17 17 17 18 19 19 20 19 19 18
9 8 9 10 10 10 10 11 11 13 13 14 15 16 16 16 16 16 16 17 18 18 17 18 17 16 15 15 16 17 16 16 16 17 17 17 17 18 18 19 19 19 19 18
11 10 11 11 11 12 12 12 13 14 14 15 15 15 15 16 16 17 17 17 18 18 18 18 18 16 15 15 15 15 16 16 16 16 16 16 16 17 18 19 20 20 20 19
12 12 12 12 12 12 14 14 14 15 16 16 16 17 18 18 18 18 18 18 18 19 19 18 18 17 17 15 15 15 16 17 17 17 17 17 17 17 18 18 19 20 20 20
13 13 13 13 14 14 15 16 16 16 16 17 18 19 19 19 19 19 19 20 20 21 20 18 18 18 18 17 17 17 17 17 17 18 18 18 18 18 19 19 19 19 20 20
15 15 15 16 16 16 17 17 17 17 17 17 18 19 20 19 19 19 20 21 21 20 20 19 18 19 18 18 17 18 18 18 19 19 19 19 19 19 20 21 20 20 20 21
16 16 16 17 18 18 18 18 18 19 19 19 20 21 21 21 21 19 19 21 21 20 20 20 20 19 19 18 18 18 19 19 19 19 20 20 20 20 20 20 20 20 20 20
16 17 18 18 18 19 18 18 18 19 19 19 19 19 19 19 20 21 21 20 20 21 20 21 20 21 20 19 19 19 20 20 20 20 20 20 20 21 20 20 20 20 20 20
16 17 18 18 19 19 18 19 18 18 19 19 19 19 20 19 19 20 22 21 20 21 21 22 22 21 20 19 19 19 19 20 20 20 20 20 20 20 21 21 20 20 21 21
16 16 16 16 16 16 17 17 17 18 18 19 19 19 18 18 19 19 19 21 21 21 22 22 21 20 20 19 19 19 19 19 20 20 20 21 20 20 20 20 20 19 19 19
16 16 16 16 16 16 17 17 17 17 18 18 18 18 18 17 18 19 18 19 21 19 19 22 21 20 19 19 20 19 20 20 21 19 19 19 19 19 19 18 19 19 19 19
16 16 16 16 15 15 15 15 15 15 16 17 17 17 17 17 17 17 19 20 20 19 19 19 20 18 18 19 19 19 18 18 18 18 18 18 18 18 19 19 19 19 19 20
15 15 15 15 15 16 15 15 15 16 17 17 18 17 17 17 18 17 18 17 17 17 17 17 17 18 18 18 17 17 17 17 20 19 18 18 19 19 19 20 20 20 20 20

GFSNGP_con_lsi_060.txt.gz
Lid_Strength_Index
11 10 10 11 11 10 12 13 16 13 12 10 9 8 7 6 6 7 6 5 4 4 4 3 3 3 2 2 2 2 2 2 2 2 1 1 1 1 1 1 1 1 1 1
13 10 10 11 10 12 12 9 10 11 12 7 6 6 7 7 7 6 5 5 4 4 3 3 3 3 2 2 2 2 2 2 2 2 2 2 2 2 1 1 1 1 1 1
16 11 11 14 11 11 11 9 9 11 8 7 7 7 7 6 6 5 5 5 4 4 3 3 3 2 3 2 2 2 2 2 2 2 2 2 2 2 2 2 2 2 2 2
16 14 19 10 7 7 9 8 7 7 7 7 7 6 5 5 5 5 5 4 4 3 3 3 2 2 2 2 2 2 2 2 2 2 2 2 2 2 2 2 2 2 2 2
17 16 14 11 9 9 10 10 7 8 7 6 5 5 6 4 4 4 4 3 3 3 3 3 3 4 4 3 2 2 3 2 2 2 2 2 2 2 2 2 2 2 2 2
14 17 19 10 7 6 7 11 6 6 7 7 6 10 8 4 4 4 3 3 3 3 4 4 6 6 6 5 5 3 3 2 2 2 2 2 2 2 2 2 2 5 11 12
14 16 12 8 6 6 13 13 7 6 6 6 8 6 5 4 4 3 3 4 4 4 5 6 8 8 8 8 7 8 6 3 4 3 2 2 2 2 2 8 13 15 16 16
13 15 16 6 6 10 9 7 6 6 6 6 5 5 4 4 4 4 5 4 5 6 6 7 9 9 10 10 9 8 7 5 7 8 7 9 9 11 11 13 15 16 17 17
11 11 6 5 7 5 5 6 6 5 5 5 5 5 4 4 4 5 6 7 7 8 8 9 10 10 11 11 9 10 10 11 11 11 12 11 12 13 14 15 16 17 17 18
10 8 6 7 5 5 5 5 5 5 5 5 5 4 5 5 7 8 9 10 10 11 11 12 11 11 11 11 10 11 13 14 15 15 15 15 14 14 15 16 17 18 18 19
9 8 8 7 6 5 5 5 6 5 5 6 6 6 7 9 10 10 11 12 12 13 13 13 13 13 12 11 12 13 14 15 16 16 16 17 17 18 18 17 17 18 18 18
12 8 8 8 6 5 6 6 6 7 7 7 7 8 9 11 12 12 13 13 14 14 14 14 14 13 12 12 13 14 15 16 17 17 17 17 17 18 17 17 16 16 16 17
7 6 6 6 6 7 7 7 7 8 9 10 10 10 11 13 14 14 15 15 15 15 15 14 14 14 13 13 13 14 16 16 17 17 17 18 18 19 20 18 17 17 17 17
7 7 6 7 9 8 8 8 8 10 11 12 12 13 13 14 15 15 16 15 15 15 15 15 15 14 13 14 14 15 15 16 17 17 18 18 19 20 20 20 21 20 18 18
9 7 8 8 9 9 9 9 11 12 13 14 14 15 15 16 17 17 16 15 15 16 16 16 16 15 14 14 15 15 16 16 16 16 17 17 17 18 19 20 21 20 20 20
10 8 9 10 10 11 11 11 12 13 14 14 15 15 15 15 16 17 17 17 18 18 17 17 17 15 14 15 15 16 16 16 16 16 17 18 18 19 20 20 20 20 20 20
12 13 12 12 12 13 13 13 13 14 14 14 14 14 15 16 16 17 17 18 18 18 18 18 18 17 15 15 15 16 17 17 16 17 17 17 18 19 20 20 21 20 20 20
12 12 13 13 13 14 15 15 15 15 17 17 17 17 18 19 19 19 19 19 19 20 19 18 17 17 17 16 16 16 17 17 17 18 18 18 18 18 19 19 20 21 21 21
13 14 14 14 14 15 16 16 17 17 17 18 18 19 19 19 20 20 20 21 21 22 21 19 17 17 17 17 16 17 18 18 18 18 19 20 20 20 20 20 21 21 21 22
15 15 15 16 15 16 17 17 17 18 18 18 19 20 21 21 19 20 21 22 21 21 20 20 18 19 18 18 18 18 19 19 19 20 20 20 20 21 21 21 21 21 22 22
16 16 17 17 18 17 17 17 18 19 19 19 20 21 21 21 21 20 21 22 21 20 20 20 20 19 19 18 19 19 19 20 20 20 20 21 21 21 21 21 21 22 22 22
16 17 17 18 18 18 18 18 18 19 19 19 19 19 19 20 21 21 22 21 20 20 21 20 20 20 19 19 19 19 20 20 20 21 21 21 21 21 22 22 22 22 22 22
16 16 17 18 18 18 18 19 19 19 19 19 19 19 19 20 20 21 23 21 21 22 21 21 21 20 20 19 19 19 19 20 20 21 21 21 22 22 22 23 22 22 23 23
15 16 16 16 16 17 18 18 18 18 19 18 19 19 18 19 19 18 19 20 20 22 22 21 22 21 20 19 20 21 22 22 21 21 21 22 21 21 21 23 22 21 22 22
15 15 15 15 17 17 17 17 17 17 17 17 17 17 17 18 19 19 19 19 21 19 20 23 22 21 20 20 21 20 20 21 21 21 20 20 20 20 20 20 21 22 22 22
15 16 16 16 15 15 15 14 15 15 15 17 17 17 17 17 17 17 19 19 19 19 19 19 20 20 19 19 19 19 19 19 20 19 19 19 20 19 20 21 22 22 22 23
14 14 15 15 15 16 16 16 15 16 17 17 18 17 17 17 18 18 19 17 17 17 17 17 17 18 18 18 17 17 17 18 20 20 20 19 20 20 21 22 23 23 23 24

GFSNGP_con_lsi_063.txt.gz
Lid_Strength_Index
12 11 11 13 13 11 13 12 16 14 14 11 10 9 7 9 7 7 6 6 6 6 5 5 5 5 4 4 3 2 3 3 3 3 3 2 2 1 1 1 1 1 1 1
14 11 11 13 12 11 12 12 12 12 13 9 8 8 7 8 7 7 7 6 6 6 5 5 4 5 5 5 5 3 2 3 3 3 3 3 3 3 2 1 1 1 1 1
17 12 13 16 12 12 12 11 11 15 11 9 9 8 8 8 7 7 7 7 7 6 6 5 7 7 7 6 5 5 4 3 2 3 3 2 2 3 3 2 2 2 2 1
17 14 21 12 9 9 11 10 9 9 8 8 7 6 7 7 7 7 7 7 7 7 7 7 7 8 7 6 6 6 6 6 4 4 4 3 3 2 2 2 2 2 2 2
17 17 14 12 10 10 10 11 8 8 8 7 6 7 7 5 5 7 7 7 6 6 7 8 9 9 8 7 8 8 8 7 6 4 5 7 4 3 3 2 2 2 2 2
16 18 20 13 8 6 7 14 8 8 8 8 8 11 9 6 6 7 7 7 8 8 8 10 10 10 9 10 9 9 9 9 7 6 7 7 6 6 3 3 3 3 9 12
15 17 15 9 7 7 14 14 8 7 7 8 9 7 6 6 8 8 9 10 8 9 10 11 11 10 11 11 12 10 9 8 8 9 9 9 8 8 5 6 13 15 16 15
15 17 18 7 8 11 10 7 7 7 7 7 7 6 7 8 10 11 11 10 10 10 11 11 12 12 12 12 12 10 10 11 12 12 12 12 10 10 11 13 14 15 16 17
12 13 8 7 8 6 6 7 7 7 7 7 7 8 9 10 10 11 12 11 11 11 12 12 12 13 13 12 11 11 12 13 13 13 13 14 14 14 13 14 16 17 17 18
11 10 9 8 6 6 6 7 7 7 7 7 8 9 11 11 12 12 12 13 13 13 14 14 13 13 12 12 11 12 13 14 14 14 15 15 16 16 16 15 16 17 18 19
11 9 8 7 7 7 8 7 7 7 8 8 9 11 12 13 12 13 14 14 14 14 14 14 13 13 13 12 12 13 14 14 14 15 15 16 16 17 17 16 16 18 18 18
13 9 8 8 7 7 8 9 8 9 10 10 10 12 13 13 14 14 15 15 15 15 15 14 14 14 13 12 12 13 14 15 15 16 16 16 17 17 16 15 15 16 16 16
11 7 9 9 9 8 9 10 11 11 11 13 12 13 14 15 15 15 16 16 16 16 15 15 15 15 14 13 13 14 15 15 16 16 17 17 18 18 20 18 16 16 16 16
8 7 10 10 11 9 10 11 12 13 13 14 14 15 15 16 16 16 16 16 16 17 17 17 16 16 15 14 15 14 15 15 16 16 17 18 18 19 20 21 21 21 18 18
10 9 9 10 11 12 11 12 14 15 15 16 16 16 17 18 18 18 17 17 17 18 18 18 18 16 14 14 15 15 15 15 16 17 17 18 19 19 19 19 20 21 21 20
10 11 11 12 13 14 14 14 15 16 16 16 16 16 17 18 18 18 18 18 19 19 18 19 18 16 15 15 16 16 16 16 16 16 17 18 19 19 20 20 20 21 21 21
14 15 14 15 16 16 16 16 16 16 17 17 17 16 17 18 19 19 19 20 20 20 19 19 19 17 16 16 15 16 16 17 17 17 17 18 18 19 20 20 21 21 21 21
13 14 14 15 16 16 17 17 17 17 18 18 19 19 20 21 22 22 21 21 21 21 21 19 18 18 17 17 17 17 17 17 18 19 19 19 18 19 20 20 21 22 22 22
15 16 15 16 16 17 17 18 18 18 18 19 20 21 22 22 22 22 22 22 23 23 22 20 18 18 19 17 18 18 19 19 19 19 19 20 20 20 21 22 22 22 22 23
17 17 17 18 17 18 19 19 19 20 21 22 22 22 24 23 23 23 23 24 23 23 21 21 20 19 19 19 19 19 20 20 20 20 21 21 22 22 22 22 22 23 23 23
18 18 19 19 20 20 21 22 21 21 21 22 23 26 26 24 24 24 24 24 23 22 21 21 20 19 19 19 19 20 21 21 22 22 22 23 23 23 23 23 24 24 24 24
19 19 21 22 20 20 21 21 21 21 21 22 22 22 23 24 25 24 23 23 22 23 22 22 21 22 20 20 20 21 21 22 22 23 24 24 27 28 27 26 28 29 28 25
18 18 19 21 21 21 21 20 21 22 23 23 22 23 22 22 22 25 26 21 22 24 22 23 24 23 22 23 24 24 24 23 25 27 27 30 31 31 31 28 25 27 31 27
17 17 18 18 18 18 20 20 19 19 21 20 22 21 19 21 22 20 21 23 24 28 28 26 25 26 27 28 24 28 31 30 28 29 28 29 31 29 26 32 31 32 31 26
16 16 16 17 17 18 17 17 17 17 17 18 18 18 18 19 24 23 24 24 22 21 27 27 24 23 27 28 30 27 27 31 29 30 25 29 30 27 31 31 31 28 27 29
16 17 17 17 17 17 16 15 17 17 17 20 22 24 25 23 21 21 22 22 24 23 25 28 30 29 30 25 29 29 25 26 29 29 28 28 29 26 29 31 30 30 31 32
16 16 16 17 17 18 18 18 18 21 24 25 25 24 21 22 23 21 24 26 24 27 27 26 24 26 27 27 27 26 26 26 27 26 25 27 29 29 29 31 32 32 32 31

GFSNGP_con_lsi_066.txt.gz
Lid_Strength_Index
13 12 11 12 13 13 14 14 16 14 14 12 10 9 8 8 7 7 8 7 6 6 7 8 8 8 8 7 6 5 2 3 4 4 3 3 3 3 2 1 1 1 2 2
15 11 11 13 12 12 13 13 12 12 13 9 8 8 8 8 8 8 8 8 7 8 8 9 9 9 9 8 7 6 6 7 3 3 3 3 4 4 3 3 3 2 2 1
17 12 13 16 13 12 12 11 12 15 11 9 9 9 8 9 9 9 9 8 9 9 10 11 11 10 10 9 8 8 8 8 7 7 5 3 3 3 4 4 3 3 3 3
17 14 20 12 9 9 11 11 10 10 10 9 8 8 7 8 9 10 10 10 10 11 12 12 12 11 11 10 10 10 10 9 8 8 6 7 7 5 3 2 3 3 4 4
17 17 14 12 10 10 12 13 9 10 9 8 7 9 10 9 10 10 11 10 11 12 13 13 13 12 12 11 11 10 10 10 9 9 9 9 10 9 8 8 3 3 2 3
16 18 20 12 8 7 7 16 8 8 9 8 8 12 12 10 11 12 11 11 12 13 13 13 13 12 12 13 12 12 10 10 10 10 11 10 9 10 9 9 9 5 3 3
16 17 14 9 7 6 15 15 8 7 8 8 10 10 10 11 12 12 13 13 12 13 15 15 14 13 14 13 13 11 11 11 12 12 12 12 12 10 9 9 10 10 12 15
15 17 18 8 8 12 10 7 7 8 8 9 10 10 11 12 13 13 14 13 12 14 15 15 14 13 13 13 12 12 12 13 13 14 13 13 13 13 11 11 12 14 16 17
13 13 9 7 9 7 6 7 7 8 8 9 10 12 12 13 14 14 14 14 14 14 15 15 14 13 14 13 12 13 14 14 14 14 14 14 14 14 13 12 13 15 17 18
12 10 9 8 8 8 8 9 9 8 9 10 11 12 13 13 14 15 15 16 15 15 16 15 14 14 13 13 13 14 14 15 14 15 15 14 14 14 14 14 15 15 16 18
11 9 8 8 8 8 9 9 10 11 11 11 12 14 14 15 16 16 16 16 16 16 15 15 14 14 14 13 13 14 15 15 15 15 15 16 15 15 15 14 14 16 16 16
13 8 10 9 8 8 10 12 12 12 13 13 13 15 15 16 15 16 17 17 17 16 16 16 15 15 15 14 14 15 16 16 17 17 17 17 16 17 15 14 14 14 14 15
11 9 11 10 9 9 11 12 13 14 14 15 15 14 15 16 16 16 18 18 18 18 18 17 16 16 15 15 14 15 16 16 17 17 17 18 18 18 19 17 16 15 16 15
8 8 11 11 12 11 13 13 14 15 15 16 15 16 16 17 17 18 18 18 18 19 19 19 18 17 16 17 17 17 17 17 17 17 18 18 18 17 18 20 21 20 18 18
10 10 12 12 12 12 13 14 16 17 17 17 16 17 17 18 19 19 18 18 18 19 20 19 19 18 17 17 18 17 16 17 18 18 18 18 18 18 19 19 20 21 21 20
11 11 12 13 14 14 14 15 16 17 17 17 18 18 19 19 20 21 20 20 21 21 20 20 19 18 17 17 19 18 18 17 18 18 19 19 18 19 19 20 20 21 22 22
13 14 14 15 15 16 16 16 17 17 17 17 18 18 19 20 20 21 21 21 21 22 22 21 20 19 17 17 18 17 18 19 19 18 18 18 19 20 20 21 21 22 22 22
14 15 14 15 16 17 18 17 18 18 19 19 20 21 23 23 23 23 22 22 22 22 23 22 21 20 20 19 20 19 20 20 20 20 20 20 20 20 21 21 21 22 22 23
16 16 16 17 17 18 18 19 19 19 20 21 22 23 23 22 23 23 23 24 24 24 24 23 19 21 21 19 20 20 21 22 21 21 21 21 22 21 22 23 23 23 23 24
18 17 18 18 18 19 20 20 20 21 22 22 23 24 24 27 27 26 26 27 28 26 24 22 21 21 20 20 21 21 21 22 21 22 23 23 23 24 23 24 24 25 24 25
19 20 20 20 21 21 22 23 22 23 24 25 24 26 26 26 27 28 26 26 25 23 23 23 22 21 20 21 22 24 23 24 24 24 25 27 27 26 26 28 27 26 26 27
21 20 21 21 21 21 22 22 22 23 22 23 25 25 25 25 25 24 27 24 23 26 24 23 22 25 23 23 23 24 24 25 25 26 27 28 29 29 30 32 33 33 33 33
19 19 20 20 20 20 21 21 23 23 24 23 24 24 23 22 22 26 26 22 22 25 22 25 27 27 27 28 29 28 27 27 28 30 32 33 35 35 33 33 34 34 33 31
18 18 19 19 19 19 20 19 19 20 22 20 21 21 20 24 26 21 21 25 28 30 29 28 27 28 30 30 31 32 32 32 31 32 31 31 34 35 35 36 35 34 33 32
16 16 17 17 17 18 18 17 18 18 18 18 18 18 19 20 25 24 26 25 24 25 29 30 28 29 31 33 32 30 32 34 34 31 32 31 31 33 35 34 33 31 33 34
16 17 17 17 18 17 16 16 17 17 18 22 23 27 28 24 23 21 23 23 21 23 26 30 32 33 33 31 33 31 31 30 31 31 30 32 31 31 32 33 33 33 33 33
16 17 17 18 18 18 17 18 20 21 21 23 24 25 25 26 26 24 28 28 29 30 31 27 28 27 27 28 28 29 29 29 30 29 31 31 31 30 32 33 34 35 35 35

GFSNGP_con_lsi_069.txt.gz
Lid_Strength_Index
13 12 12 13 13 13 15 14 17 14 14 12 10 10 9 7 8 8 9 9 11 11 11 10 10 10 9 9 8 7 5 5 4 3 3 3 3 3 3 3 3 3 2 2
14 12 12 13 12 12 13 13 13 13 13 9 8 8 8 8 8 9 10 10 11 12 12 12 12 12 11 10 10 10 10 9 8 7 4 3 2 3 3 3 2 3 3 3
16 13 13 16 13 12 12 11 12 15 12 9 10 9 8 9 9 10 10 11 12 13 13 13 13 12 12 12 11 11 11 10 9 8 8 8 7 7 3 3 2 3 3 3
16 15 19 12 10 9 11 11 10 10 10 9 9 8 8 8 9 10 11 12 13 13 14 14 13 13 12 13 13 12 12 11 11 11 10 10 9 8 9 8 7 5 2 2
17 17 14 12 10 11 12 12 9 10 9 8 8 10 12 11 11 12 12 13 14 15 15 15 15 14 14 14 13 13 13 13 13 13 13 12 11 11 10 9 9 9 8 7
15 18 20 13 9 7 8 15 9 8 9 9 9 12 14 12 13 13 13 14 15 15 16 16 15 15 15 15 15 14 13 14 14 14 14 13 13 13 12 10 9 9 10 13
16 17 14 9 9 7 16 15 8 8 8 8 10 10 12 12 13 13 13 13 14 15 16 15 14 14 15 14 15 15 14 14 15 15 14 14 13 13 12 12 11 12 14 14
15 16 18 8 9 13 10 7 8 9 11 11 12 12 13 13 14 14 15 15 15 16 16 15 15 14 15 16 15 15 15 15 15 15 14 14 13 13 12 12 13 14 15 16
13 13 8 8 9 8 6 8 8 9 10 11 12 13 14 15 15 16 16 16 16 16 16 15 14 14 15 15 15 16 16 16 16 16 15 14 14 14 14 13 14 14 15 16
12 10 9 8 8 9 10 10 9 9 10 12 14 14 15 16 16 17 17 17 16 16 16 16 15 15 15 14 15 15 16 16 15 15 16 16 15 15 15 15 15 15 15 16
11 9 8 8 8 9 10 11 12 12 12 13 14 16 16 17 17 17 17 17 16 17 17 17 16 16 15 16 15 16 16 16 16 16 16 16 16 16 16 15 15 16 16 16
13 9 9 10 9 9 11 12 13 14 15 14 15 16 17 17 17 17 18 18 18 18 18 17 17 17 16 15 15 15 16 17 17 17 17 17 17 17 15 15 15 14 15 16
11 10 11 11 11 11 13 14 14 15 15 16 16 16 17 18 18 17 18 19 20 20 19 18 18 18 17 16 16 16 17 17 17 18 18 18 19 19 20 18 16 16 15 15
9 9 12 11 13 13 14 15 15 16 16 16 17 17 17 18 18 19 19 18 18 19 19 19 19 19 18 19 18 19 19 19 20 20 20 20 20 20 20 20 21 20 18 17
12 11 12 12 13 13 14 14 16 17 17 18 17 18 18 19 20 20 19 18 19 20 20 20 20 19 19 20 19 18 19 20 21 20 20 20 20 20 20 21 22 22 21 20
12 12 13 14 14 14 15 15 17 18 18 18 19 20 20 20 21 21 21 21 22 23 22 21 21 20 20 21 21 20 20 19 20 20 20 20 20 21 22 22 23 23 23 23
13 14 14 15 15 16 16 16 16 17 18 18 19 19 20 21 21 22 23 23 25 26 24 23 23 22 20 21 21 21 22 21 21 19 20 20 21 21 22 23 23 24 24 24
15 15 15 15 16 17 17 17 18 18 20 21 22 23 24 24 25 24 24 26 26 25 24 24 23 22 21 21 21 21 21 21 21 21 21 22 22 22 23 23 23 24 25 25
15 16 16 17 17 18 18 19 20 20 21 22 23 25 24 24 24 26 28 27 27 26 24 24 19 21 21 20 21 22 22 23 23 23 22 25 24 23 24 25 25 26 25 26
18 18 19 19 19 20 21 22 22 23 24 24 25 25 25 26 26 28 30 28 27 25 23 22 21 21 22 22 23 23 24 25 23 25 26 25 27 29 28 27 26 28 31 29
20 20 20 21 22 21 22 22 22 23 23 23 24 25 27 29 30 30 27 25 24 23 22 22 23 22 22 23 23 26 26 27 27 28 30 31 30 31 32 32 31 33 34 32
21 21 21 21 21 21 21 21 21 21 23 25 27 30 29 28 29 28 30 26 23 25 23 23 23 28 25 25 24 27 26 27 29 29 31 32 33 34 37 37 37 37 37 38
19 20 20 20 20 21 20 22 23 22 23 25 27 27 25 23 23 26 26 22 22 24 22 25 27 29 30 30 30 31 31 31 31 33 35 37 37 37 36 36 37 37 37 36
18 18 19 19 19 19 20 20 19 20 22 21 24 26 22 27 28 21 22 25 28 29 28 29 29 29 30 32 33 34 35 36 35 36 33 35 38 38 38 38 35 35 35 34
17 17 18 18 17 18 18 18 18 18 19 19 19 19 19 20 24 24 26 25 24 25 28 31 30 31 34 35 34 34 35 36 36 36 36 35 36 36 37 36 36 35 36 37
16 17 17 17 17 17 17 16 18 19 19 22 23 28 28 26 23 23 24 25 24 25 28 32 33 34 34 33 34 34 34 32 33 33 33 33 34 33 34 34 35 34 35 36
17 18 18 18 18 18 18 18 19 20 21 22 23 27 26 29 28 25 27 28 30 31 30 29 30 27 30 31 32 30 30 30 31 30 33 33 33 32 34 34 34 36 37 38

GFSNGP_con_lsi_072.txt.gz
Lid_Strength_Index
13 12 12 13 13 12 14 14 17 15 15 12 10 10 9 9 9 11 12 13 12 12 12 11 11 10 11 10 10 8 7 7 7 5 3 3 3 2 2 3 3 3 3 4
14 12 12 13 13 13 13 13 13 13 14 9 9 8 8 9 9 11 12 13 13 13 13 13 13 13 13 12 11 10 10 10 9 8 8 8 7 6 4 3 2 3 3 3
16 13 13 15 13 13 12 12 12 15 12 9 10 9 9 9 10 11 12 13 14 14 15 15 14 14 14 13 12 12 12 12 12 11 10 10 9 8 9 8 7 7 4 3
16 14 19 13 10 10 12 11 10 10 10 9 9 8 8 8 10 12 13 14 15 15 15 15 14 14 14 14 13 14 14 14 14 13 13 12 11 11 11 9 8 8 8 8
17 17 14 12 11 11 12 12 9 10 9 10 10 11 13 11 11 13 13 15 15 16 16 15 15 15 14 15 15 15 16 16 16 15 14 14 14 13 12 11 10 9 11 12
15 18 20 13 10 8 9 15 9 9 9 10 9 13 13 12 12 14 14 15 16 16 15 16 16 15 15 16 17 17 17 17 17 15 15 15 15 14 13 12 12 13 14 14
16 17 15 10 9 8 16 14 9 9 8 9 10 11 12 13 14 14 14 15 16 16 17 17 15 16 17 17 18 17 17 17 17 16 16 15 15 14 14 14 14 15 16 15
15 17 18 8 9 13 10 8 10 10 10 12 13 13 14 15 16 16 16 16 16 16 17 16 16 16 18 18 17 17 17 17 17 17 16 16 16 15 15 14 14 15 15 15
13 13 8 8 9 8 7 8 9 11 11 12 13 14 15 16 16 17 16 16 16 16 16 16 16 16 16 16 16 16 16 16 16 16 16 15 16 15 15 14 14 15 15 15
12 10 9 9 9 10 10 10 9 11 11 13 15 16 16 17 17 17 17 17 16 17 17 17 16 16 16 15 16 16 17 17 16 16 16 15 15 15 15 15 16 16 16 17
11 9 8 8 9 9 11 11 12 13 13 14 15 16 17 18 18 18 17 17 17 17 17 18 17 17 16 16 17 17 18 18 18 17 17 17 16 16 16 15 15 17 16 16
13 10 10 11 10 10 12 13 13 15 16 15 16 17 18 19 18 19 19 19 19 19 19 18 18 18 18 17 16 17 17 18 19 18 18 18 17 17 15 15 15 14 14 16
11 10 11 12 12 12 14 14 14 15 15 16 16 17 17 19 19 19 19 20 20 20 19 19 19 19 19 18 18 18 19 18 18 18 19 19 20 20 22 20 17 16 16 15
10 9 12 13 14 14 15 15 15 16 16 17 17 17 18 19 19 19 20 19 19 20 20 20 20 20 19 20 19 20 21 21 21 21 21 22 23 23 24 24 24 23 19 17
12 12 13 13 14 14 15 15 16 17 18 18 18 18 19 20 21 21 19 19 19 21 21 21 21 21 20 22 22 22 22 23 24 25 24 24 25 24 24 24 24 24 23 23
12 13 13 14 15 15 15 16 17 18 18 19 19 20 20 21 21 22 22 21 22 23 23 23 22 23 22 23 23 24 24 21 22 23 23 23 23 23 23 24 25 25 25 25
13 14 14 15 16 16 17 16 17 18 18 19 19 19 20 21 22 23 24 24 25 26 26 25 25 25 23 24 24 24 25 23 23 22 22 22 23 23 24 24 25 26 27 27
15 16 15 15 16 17 17 17 18 19 20 21 22 23 24 24 26 26 26 25 26 27 26 26 26 24 23 23 22 22 23 22 21 22 22 23 24 24 25 25 25 26 27 27
16 16 16 17 17 18 19 20 20 21 22 23 24 26 25 26 27 28 30 28 29 28 26 25 20 22 22 20 21 22 23 24 23 24 24 27 27 25 27 27 28 29 28 28
19 19 19 20 20 20 22 22 22 24 25 25 26 27 28 31 32 31 30 28 27 26 24 23 22 22 22 23 23 23 25 26 24 27 28 28 31 33 30 29 29 32 34 34
21 20 21 22 22 23 24 25 23 23 24 25 25 28 28 30 30 31 27 26 25 24 23 23 23 23 23 24 24 28 28 29 29 29 31 34 34 33 34 37 36 37 36 36
22 21 21 21 21 21 21 21 22 23 25 26 27 28 27 27 28 27 28 25 23 27 24 24 24 29 26 26 25 28 27 28 30 31 32 34 35 38 39 39 38 39 40 40
21 20 20 21 21 21 22 22 23 23 24 25 26 25 24 23 23 25 26 23 22 25 23 27 29 31 31 31 32 33 32 33 34 34 36 39 39 39 38 37 38 38 38 37
19 19 19 19 19 19 21 20 19 20 23 21 24 26 21 25 26 22 23 27 29 30 29 30 30 30 32 35 35 36 36 37 36 37 35 37 40 40 39 40 37 39 39 38
18 18 19 19 18 19 19 19 19 19 19 19 19 19 20 20 25 24 26 26 25 26 29 32 31 32 36 36 36 36 37 38 37 37 36 37 37 38 39 39 38 37 38 38
17 17 17 17 18 18 18 17 19 19 19 23 23 28 28 26 24 24 26 27 26 26 29 33 34 35 35 34 35 35 35 33 35 35 36 35 36 35 36 35 36 35 36 37
18 19 19 19 19 18 18 18 19 20 20 22 24 28 27 30 30 26 27 28 30 32 33 34 33 29 31 32 33 32 31 32 32 32 35 35 35 35 34 33 34 36 38 38

GFSNGP_con_lsi_075.txt.gz
Lid_Strength_Index
12 11 12 12 12 12 13 13 16 14 14 11 10 9 9 10 11 12 13 14 13 13 13 12 11 10 10 10 9 9 9 9 9 8 7 6 4 3 2 2 1 1 1 0
13 12 12 13 12 12 11 13 12 12 13 8 8 8 8 10 11 13 13 14 15 14 14 14 14 13 12 12 12 11 12 12 11 10 10 9 8 8 7 7 6 4 3 3
15 12 12 15 12 12 11 10 11 14 11 9 10 9 8 9 11 12 13 14 15 15 15 14 14 13 13 13 13 13 14 13 13 12 11 11 10 10 10 9 8 8 9 9
15 13 18 12 9 9 11 10 9 9 9 9 9 10 9 9 11 12 13 14 15 15 14 15 14 14 14 14 15 15 15 14 13 13 12 12 11 10 10 9 9 11 12 13
15 15 13 12 10 11 12 12 9 10 9 9 10 10 12 12 12 14 14 15 15 15 15 15 14 14 15 16 15 16 16 15 14 14 14 13 13 12 11 11 12 13 14 14
15 17 18 12 9 7 8 13 8 9 9 9 9 12 13 13 14 15 15 15 15 15 15 15 15 15 16 16 17 17 17 17 15 15 15 15 14 14 13 13 14 14 15 15
14 16 13 9 8 7 14 13 8 9 8 8 9 12 14 14 15 15 15 15 15 16 16 16 16 16 17 17 18 17 17 17 16 16 16 15 15 14 14 15 15 16 16 15
14 16 17 8 8 12 10 8 9 10 11 12 13 15 16 16 17 16 16 16 16 16 17 16 16 16 17 18 17 17 17 18 17 17 17 16 16 15 15 15 15 15 16 16
12 12 8 8 9 9 6 8 9 10 12 13 14 16 16 17 17 17 17 16 15 16 17 16 16 16 17 17 17 17 17 17 17 17 17 16 16 16 15 15 15 15 16 16
12 10 9 9 9 10 10 10 10 10 13 14 16 17 17 18 18 18 17 17 17 17 17 17 17 16 16 16 16 16 17 17 17 16 16 15 15 15 16 16 16 16 15 15
11 10 10 10 10 10 11 11 12 12 13 15 15 17 17 17 18 18 18 18 17 18 18 18 17 17 16 16 16 16 17 17 17 17 17 17 17 16 16 15 15 15 15 15
13 10 12 13 12 11 12 12 13 13 14 15 16 17 17 18 18 18 19 18 18 18 18 18 18 18 17 16 16 16 17 17 17 16 16 16 17 17 16 15 15 15 15 14
11 11 12 12 13 12 13 14 14 14 14 16 16 17 17 18 18 18 18 19 20 20 19 19 19 19 18 17 17 17 17 16 16 16 17 17 17 17 18 18 17 17 16 16
10 10 13 13 15 14 15 15 15 15 15 16 16 17 18 18 18 19 19 19 19 19 20 20 20 20 19 18 18 19 18 19 17 17 18 18 18 19 19 19 20 20 19 19
12 12 12 13 13 14 14 15 16 17 17 17 16 18 18 19 20 20 18 18 19 20 20 20 21 21 20 20 19 18 17 18 18 18 19 19 19 19 20 20 21 21 20 20
12 12 13 14 15 15 15 16 17 18 18 18 18 19 19 20 20 21 21 20 21 22 22 22 21 21 21 20 19 18 18 20 19 18 19 19 19 20 20 21 21 22 22 22
13 13 14 15 15 16 16 16 16 17 18 18 19 19 20 20 21 22 22 22 23 23 22 22 22 22 21 20 18 18 18 19 20 18 19 19 20 20 20 21 22 22 22 23
15 15 14 14 15 16 17 17 17 18 19 20 21 21 22 22 23 24 24 23 23 23 23 23 21 21 21 20 19 18 18 18 19 19 19 20 20 20 20 21 21 22 22 24
15 16 16 16 17 17 18 19 20 20 21 21 22 24 24 24 24 25 24 24 24 23 23 22 20 20 20 19 19 19 19 19 19 20 20 21 20 21 21 21 22 22 22 23
18 18 19 19 19 19 21 21 21 22 22 23 24 24 25 26 25 25 24 24 23 22 21 21 20 20 20 21 21 19 19 19 20 21 21 21 21 21 22 23 22 23 23 23
19 19 20 20 21 21 21 21 21 22 22 22 22 24 24 24 24 23 22 22 22 21 21 21 21 20 20 21 20 20 20 21 21 21 21 22 22 22 22 22 22 22 22 22
20 20 20 20 20 20 20 20 21 22 23 24 24 24 24 23 23 23 23 21 21 22 21 21 21 25 22 21 20 20 21 21 21 21 21 21 22 22 22 22 23 23 23 23
19 19 19 20 20 20 21 21 22 22 23 23 23 22 21 21 21 22 22 21 20 22 20 21 25 26 26 21 21 21 22 22 22 22 22 22 22 22 22 22 22 23 23 23
19 19 19 19 18 19 20 19 19 20 20 20 21 21 20 20 20 20 20 22 23 22 21 22 23 25 24 22 22 22 22 22 22 22 22 28 22 23 22 22 22 22 23 24
17 17 17 17 17 17 17 17 17 18 18 18 18 18 18 18 19 19 19 19 20 21 20 25 26 27 21 21 21 21 21 21 21 21 21 21 21 22 21 22 22 21 22 22
16 16 16 16 16 15 16 16 17 17 17 18 18 19 20 19 19 18 19 21 20 21 19 20 21 21 20 20 20 21 21 20 21 21 22 21 20 20 21 20 21 20 20 20
16 17 16 16 16 16 16 16 16 16 16 16 17 18 18 18 19 19 21 18 18 19 19 19 20 20 19 19 19 19 19 19 21 19 19 19 20 19 20 20 20 20 21 22

GFSNGP_con_lsi_078.txt.gz
Lid_Strength_Index
11 11 11 11 11 10 11 11 14 12 12 10 8 8 8 9 11 13 14 14 14 13 13 12 12 12 11 10 9 9 9 9 9 8 7 6 6 5 3 2 1 0 1 0
13 11 10 11 10 11 10 10 10 11 11 7 7 7 8 10 11 12 14 14 15 15 14 14 13 13 12 12 12 11 12 12 11 10 10 10 9 9 7 7 6 7 8 9
15 11 11 13 11 10 10 9 10 13 10 7 8 9 8 9 11 12 15 15 15 16 15 15 15 14 14 13 13 12 12 12 11 10 11 11 10 10 10 10 10 11 11 11
13 12 17 10 8 8 9 9 8 8 9 8 9 10 11 10 11 12 13 15 15 15 15 14 15 14 14 14 14 13 12 13 12 12 11 10 10 9 9 11 12 14 14 14
13 13 12 11 9 9 10 10 8 9 8 8 10 11 14 13 13 15 15 15 15 14 15 15 15 15 15 15 14 15 15 15 14 13 13 11 11 11 11 11 12 13 13 14
12 15 17 11 8 6 7 12 7 7 8 8 8 12 15 14 14 15 15 15 15 15 14 15 15 15 15 16 16 16 15 15 14 14 13 13 13 13 12 12 13 13 13 13
13 13 11 8 7 6 13 13 7 7 9 8 9 13 15 15 16 15 15 15 15 15 15 14 14 14 16 16 16 17 16 16 15 14 14 14 13 13 13 14 14 14 14 14
12 14 16 7 8 11 9 7 8 9 10 13 14 15 15 16 16 16 15 15 14 15 15 14 14 14 15 16 16 16 16 16 16 16 15 15 15 15 14 14 15 15 15 15
11 12 8 7 7 8 7 8 9 9 10 12 15 16 16 16 17 16 15 14 14 14 15 15 14 14 16 16 15 15 16 16 16 16 16 15 15 14 14 14 14 15 15 15
11 10 9 9 9 9 10 11 10 10 12 14 16 16 17 17 17 17 16 16 14 15 15 16 15 15 15 15 15 15 15 16 16 16 15 15 15 15 15 14 14 14 14 15
11 10 11 11 10 10 10 10 11 11 11 13 14 15 16 17 17 17 17 16 15 16 16 16 15 15 14 14 14 15 15 15 15 15 15 16 16 15 16 15 14 15 15 15
12 11 11 12 11 10 11 11 11 12 12 13 15 16 16 17 16 16 17 17 17 16 16 16 16 16 15 13 13 13 14 14 14 14 14 14 16 17 16 16 16 16 15 15
11 11 11 11 11 11 12 12 12 13 13 14 14 15 15 16 16 17 17 18 18 18 17 17 17 18 17 16 15 15 15 14 14 14 14 14 14 14 17 17 17 17 16 16
9 10 12 11 13 12 12 12 12 13 13 13 13 14 15 16 17 17 18 17 18 18 18 18 18 18 17 16 16 16 15 16 14 14 14 14 15 15 15 15 16 17 18 18
11 10 11 11 12 12 12 13 13 14 14 14 14 14 15 16 16 17 17 17 17 18 18 18 19 18 17 16 16 15 14 15 15 15 16 15 15 16 16 16 17 17 16 17
11 11 11 12 13 13 13 13 14 15 15 15 16 16 16 16 17 17 18 17 18 19 19 19 19 19 18 16 15 15 16 17 15 15 15 15 16 16 17 17 18 18 19 19
12 13 12 13 13 13 14 14 14 15 15 16 16 16 16 17 18 19 19 19 20 20 19 19 19 19 18 17 15 15 15 16 17 15 16 16 16 17 17 18 18 19 20 21
12 12 12 12 13 14 15 15 15 15 16 17 18 19 19 19 20 20 20 20 20 20 20 19 19 18 18 17 16 15 15 15 16 16 16 17 17 17 17 18 18 18 19 20
13 13 13 14 14 15 15 16 17 18 18 19 20 21 21 21 21 21 20 20 20 19 20 19 18 18 18 18 16 15 16 16 16 17 17 18 17 17 17 17 18 18 18 19
15 15 15 16 16 16 17 18 18 19 19 20 21 21 22 22 22 21 20 21 21 20 19 19 18 18 18 18 18 16 16 16 17 17 17 17 17 17 18 20 18 18 18 18
17 17 18 18 18 18 18 18 18 19 20 19 19 21 21 21 21 20 19 18 19 19 19 19 18 17 17 17 16 16 16 16 17 17 17 17 17 18 18 18 17 17 17 18
17 17 18 18 18 18 17 17 18 19 20 21 22 21 21 21 21 20 20 18 18 20 18 18 18 21 19 19 17 17 17 17 17 17 17 17 17 17 17 18 18 18 18 18
17 17 17 18 18 18 18 19 19 19 20 20 20 19 18 18 17 17 18 19 17 19 17 18 21 21 20 17 17 17 17 18 18 18 17 17 17 18 18 18 18 18 18 18
16 16 16 16 17 17 17 17 17 17 18 18 18 18 16 16 17 16 17 19 20 18 18 18 19 22 20 17 17 18 17 17 17 17 17 23 17 18 18 18 19 18 18 20
15 16 15 15 15 14 15 15 15 15 16 16 16 16 16 15 14 15 15 16 19 18 16 21 22 21 16 16 16 17 17 17 17 17 17 17 17 18 17 17 18 18 18 18
14 13 13 14 13 12 12 13 13 13 13 14 14 13 14 14 14 14 15 16 16 17 15 15 16 16 16 16 16 17 17 16 17 17 17 17 17 17 17 17 17 16 16 16
14 14 13 13 13 13 12 12 12 13 13 13 13 13 13 13 13 14 16 14 14 14 14 14 14 15 15 15 15 15 15 15 16 16 15 15 15 15 15 15 15 15 15 16

GFSNGP_con_lsi_081.txt.gz
Lid_Strength_Index
10 9 10 12 13 10 12 11 13 11 10 9 7 8 8 8 10 12 14 15 14 14 13 13 12 11 12 11 10 8 8 8 8 7 7 6 6 4 2 4 4 4 2 6
13 11 10 12 11 9 9 10 9 9 10 7 7 7 7 9 10 13 14 14 15 15 14 14 13 13 13 12 12 11 11 10 10 9 9 9 8 7 8 9 9 9 11 11
15 11 11 15 11 10 10 9 9 12 10 7 9 8 8 9 11 13 14 14 15 15 15 15 15 14 14 13 12 13 12 12 11 11 10 10 10 11 11 12 12 12 12 13
16 12 18 10 8 8 9 8 8 8 9 8 9 11 11 10 12 13 14 14 14 15 16 15 15 15 14 14 14 14 13 13 12 11 11 10 10 12 13 13 14 14 14 14
17 14 11 10 9 9 10 12 8 8 7 8 9 11 14 13 13 14 15 14 15 15 15 15 15 15 15 15 15 15 15 14 12 11 11 11 12 12 12 13 14 14 14 13
14 16 17 11 7 6 6 13 8 7 8 7 8 12 14 14 14 15 15 15 14 15 16 15 16 15 16 16 16 17 16 15 14 14 12 13 13 13 13 12 13 13 14 14
15 13 12 8 6 5 12 14 7 7 9 10 12 14 14 14 15 15 14 15 14 14 15 15 15 16 17 16 16 16 15 15 15 14 14 13 13 13 13 13 13 14 15 15
12 14 17 7 7 11 9 7 7 8 10 13 13 14 15 14 15 14 14 14 13 14 14 14 13 14 15 16 17 16 16 16 16 15 15 14 14 14 14 14 14 14 15 15
13 14 8 7 8 8 7 8 8 10 11 12 13 14 14 15 15 15 14 14 13 14 14 14 13 13 14 14 14 14 14 15 15 16 16 16 16 15 15 15 15 16 16 17
11 10 10 9 8 9 9 9 10 10 11 12 14 14 15 16 16 16 15 14 13 14 15 15 14 14 13 13 13 14 15 16 15 15 15 15 16 17 17 15 15 15 16 16
11 10 9 9 9 9 9 10 10 10 11 12 13 14 15 15 16 16 15 15 14 15 15 15 14 14 13 13 13 14 15 15 16 16 17 18 18 17 17 16 16 16 16 16
12 9 10 11 10 9 10 10 10 11 12 12 13 15 15 16 15 16 16 16 16 16 16 16 16 16 15 14 13 14 15 15 14 14 15 15 16 18 17 16 16 16 16 15
10 9 11 11 10 10 11 11 11 11 11 12 12 13 15 16 16 16 16 17 18 17 17 16 17 17 16 15 15 15 14 14 14 14 14 15 14 15 17 18 17 17 17 17
9 8 10 10 12 11 10 11 11 11 12 12 12 12 14 15 15 16 17 17 17 17 17 17 17 17 16 15 15 15 15 15 14 14 15 15 15 15 15 15 16 18 18 18
10 9 10 10 10 11 10 11 12 12 13 13 13 13 14 15 15 15 15 15 16 17 17 18 18 18 16 15 15 15 14 15 14 14 15 15 14 14 15 15 15 15 16 16
10 10 10 11 11 11 11 11 12 13 14 14 15 14 15 15 16 16 16 16 16 18 18 19 19 18 16 14 14 14 15 15 14 14 14 14 14 15 15 15 16 17 18 18
11 12 12 12 12 12 12 12 12 13 14 15 15 14 15 15 16 17 18 18 18 18 17 18 18 18 17 16 14 13 14 14 15 14 15 15 15 16 16 16 17 18 19 20
10 10 10 11 12 12 13 13 13 14 15 16 16 17 18 18 18 19 18 18 18 19 18 18 17 16 17 16 15 14 14 14 15 15 15 15 16 16 16 16 17 17 18 19
11 12 12 12 12 13 14 15 16 16 17 17 18 19 19 19 19 18 18 18 17 18 18 17 17 16 17 17 15 14 14 15 15 15 16 16 16 16 16 16 17 17 17 18
14 13 13 14 14 15 16 16 16 17 17 18 19 19 20 20 19 19 19 20 19 18 18 18 16 17 17 17 16 15 15 15 15 16 16 15 15 16 17 19 17 16 17 17
15 16 16 17 17 16 16 16 17 18 18 18 18 19 20 19 19 19 16 16 17 18 17 17 17 17 16 17 15 14 15 15 15 16 16 16 16 16 16 17 17 17 17 17
16 16 16 16 16 16 16 16 18 18 19 20 20 20 19 19 19 19 19 18 17 19 17 17 18 20 18 18 15 16 16 16 16 15 16 16 16 16 16 17 17 17 17 17
15 15 16 16 16 17 17 17 17 18 18 18 18 17 16 16 15 15 15 16 15 18 16 17 20 20 20 16 15 16 16 16 16 16 16 16 16 16 17 17 17 17 17 17
15 15 15 15 16 15 16 16 15 16 17 16 17 17 15 14 14 14 15 17 18 17 17 17 18 19 20 15 16 16 16 16 16 16 16 21 16 16 16 17 17 17 17 18
15 15 15 15 14 13 14 14 14 14 14 14 14 14 14 13 13 13 13 14 18 17 14 19 19 19 16 15 15 16 16 15 15 16 16 16 16 16 16 16 16 17 16 16
14 12 12 13 12 11 11 12 12 11 12 12 12 11 12 12 12 13 13 15 14 15 14 13 14 15 14 14 15 15 15 15 15 15 16 16 15 15 15 15 15 15 15 15
13 13 13 12 11 12 12 12 12 11 11 11 12 11 12 12 12 14 15 12 12 13 13 13 13 14 13 14 14 13 14 13 14 14 14 14 14 14 14 15 15 14 15 15

GFSNGP_con_lsi_087.txt.gz
Lid_Strength_Index
11 10 11 13 13 12 13 14 17 15 14 12 10 9 10 10 11 12 13 14 14 14 14 14 14 13 13 12 11 9 8 8 8 7 6 7 8 8 8 8 8 8 9 10
13 11 11 13 12 11 11 12 13 13 14 9 8 8 10 11 11 13 13 14 14 14 14 14 15 14 13 14 12 11 10 10 9 9 10 10 10 10 11 11 12 11 12 12
15 12 12 15 12 12 11 11 12 15 12 9 11 12 12 12 12 13 14 14 15 15 15 15 15 14 15 14 13 13 11 10 11 11 12 12 12 12 13 13 13 14 14 13
16 14 20 12 8 9 12 11 10 10 10 11 12 13 13 12 13 14 14 14 14 14 14 14 15 14 15 14 14 14 13 12 11 12 12 13 13 13 13 14 15 15 15 15
17 18 14 12 11 12 12 13 10 11 10 11 12 13 14 13 13 13 13 13 14 14 14 15 15 14 14 15 14 14 15 14 13 12 13 13 14 15 14 15 15 16 16 16
15 18 20 14 11 10 10 16 10 11 12 13 10 12 16 13 13 13 13 13 14 14 15 15 16 15 15 16 16 16 16 16 15 14 13 14 15 15 15 16 17 17 17 16
15 17 15 11 11 9 16 15 11 12 13 14 16 15 14 13 13 13 12 13 13 13 14 15 14 15 16 16 16 16 15 15 15 15 16 15 15 15 16 16 17 17 18 18
14 17 18 10 11 14 11 10 11 12 13 14 14 14 14 14 14 12 13 12 12 13 13 13 13 14 16 16 15 15 15 16 16 17 16 16 16 16 16 17 18 18 18 18
13 14 10 10 12 10 10 10 10 11 12 12 14 15 14 15 15 14 13 13 13 14 14 14 13 14 16 15 15 16 18 18 18 18 18 18 18 18 17 17 18 19 20 20
11 12 12 11 10 10 9 11 11 11 12 13 15 15 16 15 15 16 15 14 14 15 16 16 15 15 14 15 15 16 18 18 18 19 19 19 19 20 19 19 20 19 20 21
12 11 11 11 10 9 10 10 11 11 11 12 13 14 15 15 16 16 16 16 15 16 17 17 16 16 15 13 14 16 17 17 18 19 19 19 19 19 19 19 19 20 20 20
14 11 11 11 10 10 11 10 11 12 12 12 14 15 15 16 16 16 17 17 17 17 18 17 17 16 15 14 14 15 15 16 17 18 19 20 20 20 18 18 17 17 18 19
12 10 11 10 9 10 11 11 11 12 12 13 13 14 15 16 16 16 16 17 18 18 18 18 18 18 17 15 15 16 16 16 16 16 16 19 20 21 22 19 18 17 17 16
8 9 11 10 11 10 11 11 11 12 12 12 13 14 15 15 15 16 17 17 17 18 19 18 19 19 17 16 16 16 16 16 16 16 17 17 17 19 19 21 22 23 18 17
9 9 9 9 10 10 10 12 13 14 14 14 14 15 16 17 18 18 16 16 17 18 19 19 20 20 18 17 17 17 17 18 19 19 19 19 19 19 19 20 21 22 22 21
9 9 10 11 12 12 12 13 14 15 15 15 15 16 17 17 18 18 18 18 19 20 19 20 20 20 19 19 17 19 19 18 18 18 19 20 20 19 20 22 24 25 25 25
10 12 11 13 14 14 15 14 14 15 16 16 16 15 16 17 18 19 20 19 20 21 21 21 22 20 19 19 18 17 19 18 19 18 19 19 20 20 20 22 23 25 26 27
12 13 13 13 14 15 15 16 16 17 17 17 19 19 20 20 21 21 21 21 22 21 21 21 20 19 19 19 17 17 17 17 17 19 18 19 19 19 20 20 21 23 24 23
13 14 13 14 14 15 16 17 18 18 20 21 22 24 25 25 25 25 22 21 23 23 22 20 17 18 18 17 18 16 17 18 17 18 17 20 21 20 21 22 23 23 22 22
15 16 16 16 16 17 18 20 20 21 24 23 26 26 27 27 28 26 26 26 25 23 21 19 18 19 18 18 20 16 17 18 18 20 19 19 22 26 26 24 23 25 27 27
18 18 19 20 21 21 21 23 23 25 26 26 25 28 27 26 26 26 21 21 23 21 19 20 21 21 20 21 19 21 21 22 23 22 23 24 25 24 25 26 25 26 25 24
20 20 20 20 19 21 24 24 25 26 26 27 28 27 26 24 26 24 25 21 20 22 19 20 20 25 22 23 19 22 21 21 22 21 23 23 23 22 23 26 26 26 26 26
20 20 20 21 22 23 24 24 25 25 26 27 26 25 23 20 19 19 21 18 17 20 19 22 24 25 25 23 24 25 22 24 25 25 25 27 26 28 26 27 27 27 27 28
18 18 21 20 20 18 19 19 18 18 23 21 23 24 19 21 17 16 18 21 23 25 23 25 25 24 25 21 23 25 25 25 21 24 24 25 25 25 26 26 28 29 29 26
18 19 18 18 17 16 16 16 16 16 17 16 16 16 15 15 20 19 18 21 20 22 21 23 23 24 27 26 24 26 26 25 24 27 28 28 26 25 24 23 23 24 27 28
16 16 16 15 16 15 15 15 17 15 15 17 17 18 18 18 18 19 20 20 19 20 22 22 24 23 25 24 21 21 23 22 24 23 21 24 24 23 24 22 23 24 26 26
15 17 16 16 16 16 18 18 20 20 21 20 18 15 16 18 20 19 21 21 21 18 19 21 19 17 20 23 23 23 23 22 20 21 24 25 25 26 26 24 23 22 21 23

GFSNGP_con_lsi_090.txt.gz
Lid_Strength_Index
12 11 11 12 12 12 13 13 16 14 15 12 10 10 10 11 12 13 14 14 14 15 14 14 14 13 13 12 11 10 9 8 8 8 8 7 8 8 9 9 9 9 9 10
14 10 11 13 11 11 12 12 12 12 13 10 10 10 11 11 12 13 14 14 15 15 15 15 14 13 13 13 13 11 11 11 10 10 11 11 11 11 11 12 12 11 12 11
17 12 12 15 13 11 11 10 12 15 12 10 12 13 14 13 13 14 15 14 15 15 15 15 15 14 14 13 12 13 12 11 12 12 12 13 12 13 13 14 13 13 13 13
16 14 20 12 10 10 12 11 10 11 10 11 13 14 14 14 14 14 14 14 14 14 15 15 14 14 13 13 13 13 14 13 13 13 13 14 14 14 15 14 15 15 14 14
17 17 13 11 11 12 13 13 11 12 11 12 13 14 15 13 13 13 13 13 13 14 14 15 15 15 15 14 14 14 15 15 14 14 14 15 15 16 15 16 16 16 15 14
15 18 20 14 11 9 10 15 12 12 13 12 12 14 16 13 13 13 12 12 13 13 14 15 15 15 15 16 15 16 15 16 15 15 15 16 16 16 16 16 17 16 17 16
15 17 14 12 11 10 16 16 13 14 14 14 15 15 14 13 13 12 12 12 12 12 13 14 14 15 16 16 17 16 16 15 15 15 15 15 16 16 16 17 17 17 17 17
15 17 18 11 11 15 12 12 13 13 14 15 14 14 14 14 13 13 13 13 13 14 14 13 13 14 15 17 16 17 17 17 17 17 16 16 15 16 16 17 18 18 18 18
13 15 10 10 11 10 11 12 13 13 13 14 15 16 16 16 16 15 13 14 14 15 15 15 14 14 16 15 16 16 17 18 18 18 18 18 17 17 17 18 19 19 19 19
13 12 12 11 11 11 11 13 12 12 14 15 17 16 17 17 17 17 15 15 15 16 16 16 15 15 15 16 16 17 18 18 18 18 19 19 18 18 19 19 19 20 20 21
13 12 12 12 11 11 12 12 12 12 12 13 14 16 16 17 17 17 17 16 16 17 17 17 16 16 15 14 15 17 17 18 18 18 18 19 19 19 19 19 19 20 20 20
16 12 13 12 11 11 11 12 12 13 13 14 15 16 17 17 16 17 17 17 18 17 17 17 17 17 16 15 14 15 16 17 18 18 19 19 19 19 17 17 17 17 18 19
14 11 11 10 10 10 12 12 13 14 14 15 14 15 15 17 16 16 17 18 18 19 18 18 18 18 17 15 15 16 16 16 16 17 19 20 20 20 21 19 17 16 16 16
8 10 12 11 12 10 11 12 12 12 13 14 14 14 15 16 16 17 17 18 18 18 19 19 19 19 18 16 15 16 17 17 18 17 17 19 20 21 22 22 23 23 20 17
9 9 9 9 9 10 12 13 14 15 15 15 15 16 17 18 18 18 17 17 17 18 19 19 20 20 19 18 17 17 16 17 18 19 19 19 19 20 21 22 23 24 22 21
8 9 10 12 12 12 13 14 15 15 15 16 16 17 17 18 18 19 18 19 20 21 20 21 20 20 19 19 18 19 18 17 18 19 19 19 19 21 22 23 24 24 24 25
10 12 13 14 14 14 15 15 15 16 16 15 16 16 17 18 18 19 21 21 21 22 22 22 22 20 19 19 17 18 17 18 19 18 19 19 19 21 22 23 23 23 23 24
12 12 12 14 15 16 16 16 16 17 18 18 20 22 23 23 24 25 24 25 24 24 23 23 23 21 20 19 17 17 17 17 17 18 18 19 19 19 20 21 21 22 22 23
14 15 15 15 15 16 17 18 19 20 22 23 23 26 28 29 28 27 24 26 28 26 24 23 18 20 19 18 18 17 18 19 19 19 19 21 21 20 22 23 23 23 23 23
16 16 16 17 17 18 20 22 21 23 26 25 28 28 28 29 30 29 29 27 26 25 24 22 20 20 19 19 20 18 19 21 19 20 20 21 26 28 25 24 23 26 29 29
19 20 21 21 23 23 24 25 25 27 29 29 27 29 29 30 30 27 25 23 24 22 20 21 21 21 19 21 19 23 22 23 23 24 24 24 25 25 27 28 26 27 28 28
24 23 22 22 23 26 28 28 27 29 29 29 30 31 29 26 27 25 27 22 21 22 20 21 21 25 21 22 20 24 22 22 23 22 23 23 22 23 26 24 24 26 26 28
21 22 22 23 24 25 27 26 28 27 28 29 28 27 25 21 20 22 23 19 18 22 19 22 25 26 26 25 27 27 26 27 27 26 27 28 29 27 26 25 27 28 28 26
21 20 22 22 21 20 20 20 20 20 25 22 24 26 20 22 24 18 20 22 24 23 24 25 26 25 26 26 27 28 28 26 26 28 27 28 29 30 31 31 30 32 32 31
19 20 20 20 18 19 17 17 18 17 18 18 17 17 18 17 21 20 22 22 22 23 24 24 23 24 28 28 26 25 27 28 27 28 29 30 27 25 24 24 25 28 29 30
17 17 17 16 16 16 16 16 18 18 17 18 19 19 20 19 18 19 21 21 20 21 22 24 26 25 26 26 26 25 25 24 24 24 24 26 28 27 27 25 23 22 22 24
16 17 17 18 17 18 19 19 22 23 24 24 22 21 18 18 20 22 22 23 23 23 20 21 20 17 17 21 23 22 25 25 24 21 22 20 21 24 27 27 26 25 22 21

GFSNGP_con_lsi_093.txt.gz
Lid_Strength_Index
13 13 13 14 14 13 13 13 15 14 13 11 10 11 12 12 12 13 14 14 14 15 15 14 14 13 13 12 12 10 10 10 10 8 7 7 8 8 9 8 9 8 9 9
15 13 13 14 12 12 12 12 12 12 13 9 9 10 12 13 13 14 14 14 14 15 15 15 14 14 13 13 12 12 12 12 12 12 11 11 12 12 11 11 11 11 11 12
17 13 13 15 13 13 12 10 11 14 11 9 12 13 14 14 14 15 15 14 15 15 15 15 15 14 14 13 12 13 13 14 14 13 14 14 14 13 13 13 13 13 13 14
17 14 20 12 9 10 12 11 10 11 10 10 13 14 14 14 14 14 14 14 14 14 15 15 14 14 14 14 13 14 14 15 13 15 16 15 15 15 15 14 14 14 14 14
19 18 14 12 11 12 13 13 11 11 11 13 13 13 15 13 13 14 13 13 14 13 14 14 15 14 15 15 15 15 16 16 15 15 16 16 17 17 16 16 16 15 15 15
15 20 21 14 11 9 10 15 12 13 13 12 13 14 17 14 13 13 13 12 13 13 13 13 14 14 15 16 16 17 16 15 15 15 16 16 16 16 16 16 17 16 16 16
15 17 15 12 11 10 16 16 13 14 14 14 16 15 14 12 13 13 13 13 13 14 14 14 13 15 17 18 18 17 16 16 16 16 15 16 15 16 16 17 17 17 17 17
14 17 18 11 11 15 13 12 13 14 14 15 15 15 15 15 15 14 16 15 15 15 15 14 14 14 16 17 17 17 17 18 18 17 16 16 17 17 17 17 18 18 18 18
14 15 11 11 12 11 11 12 13 14 14 15 16 17 17 17 18 17 16 16 15 15 15 15 14 15 16 16 17 17 18 18 18 18 18 18 18 18 18 18 18 18 19 19
13 13 13 11 11 11 12 14 14 14 15 15 17 18 18 18 18 18 17 17 16 16 17 16 15 14 15 15 16 17 18 18 18 18 18 18 18 18 19 19 19 19 19 19
13 12 12 12 11 12 13 12 13 13 14 15 16 17 16 17 17 18 19 18 17 18 17 17 16 16 15 14 15 16 17 18 18 19 19 18 18 18 18 18 18 19 19 18
16 12 13 12 11 10 12 13 13 14 15 15 16 17 18 18 17 17 18 18 19 18 18 18 17 17 16 15 14 16 17 18 18 19 19 19 18 18 16 16 16 16 16 17
13 11 11 11 11 11 13 13 13 14 14 15 15 16 16 17 17 16 17 18 19 20 19 20 20 19 19 16 16 16 16 16 17 17 18 19 19 20 20 19 17 16 15 15
9 10 12 11 12 11 11 12 12 13 14 15 15 15 16 17 17 17 18 18 18 19 20 20 21 21 20 19 17 17 17 17 17 17 19 20 20 21 21 22 22 22 18 17
9 9 11 11 12 13 13 14 15 15 15 16 16 17 17 18 18 18 18 18 18 19 20 20 21 21 20 20 20 19 18 19 19 19 19 19 20 21 21 22 22 22 22 21
9 10 11 11 12 13 14 15 16 16 16 16 17 17 17 18 18 19 19 19 20 22 21 22 21 21 20 21 20 19 19 18 19 19 19 19 20 21 22 22 23 23 23 24
12 13 13 14 14 14 15 15 15 16 16 16 17 17 18 18 19 20 22 23 25 26 26 25 24 22 21 20 18 19 19 19 19 19 19 19 20 21 21 22 22 23 24 25
12 12 12 13 15 16 16 16 17 17 18 18 21 22 24 24 25 26 27 28 26 25 25 25 23 22 21 20 19 18 19 18 18 19 19 20 19 20 21 21 21 22 23 25
13 13 14 15 15 17 17 18 19 20 22 24 23 26 29 30 29 29 28 29 29 27 25 25 18 20 20 19 18 18 19 20 19 19 19 20 21 20 22 23 24 25 24 24
16 16 17 17 18 18 20 23 22 24 27 26 29 29 29 31 32 30 30 28 27 25 25 22 21 20 19 19 21 19 19 21 20 21 22 22 25 26 23 22 22 25 27 26
20 20 21 22 25 25 26 28 26 27 30 31 28 31 30 31 32 31 26 24 25 23 21 22 22 21 20 21 20 24 22 23 22 23 25 25 28 27 28 27 27 29 31 31
25 24 24 24 25 27 30 30 28 30 30 31 33 33 31 27 28 26 28 23 22 24 22 22 22 26 22 23 20 25 22 22 21 20 21 22 24 26 27 27 28 27 27 29
23 24 25 25 25 26 28 28 29 29 29 30 29 28 26 23 22 24 24 20 19 23 21 24 26 27 26 28 28 29 28 27 26 26 26 26 25 24 24 24 25 26 27 27
22 21 23 23 23 21 21 21 21 21 27 24 25 28 22 24 25 20 21 24 25 26 26 27 27 25 27 29 29 29 28 28 28 30 28 29 30 28 27 28 27 31 32 31
19 20 21 21 19 20 18 18 19 19 19 18 18 18 20 19 22 22 24 25 24 24 24 25 24 25 29 29 28 28 28 29 29 30 29 30 29 28 28 29 29 28 31 31
17 18 19 18 18 18 18 17 20 20 19 20 20 19 20 21 19 20 21 23 23 22 23 24 27 27 28 27 27 27 27 26 26 26 28 27 29 28 29 28 28 25 26 27
17 18 18 18 18 18 18 18 21 22 24 26 26 26 24 26 23 20 21 22 22 22 22 21 21 21 20 20 20 21 21 23 25 23 24 23 24 25 24 25 26 27 27 27

GFSNGP_con_lsi_096.txt.gz
Lid_Strength_Index
14 14 14 15 15 15 16 15 18 16 15 13 10 9 10 11 12 13 14 14 14 15 15 15 14 14 14 14 13 12 12 12 12 11 10 8 6 7 8 8 8 8 8 9
16 14 15 16 15 14 13 13 13 13 14 9 8 9 12 13 13 14 15 14 14 14 15 15 15 14 14 14 13 13 13 13 13 13 13 13 12 11 11 11 11 11 12 12
19 14 14 17 14 13 12 11 12 14 12 9 11 12 13 13 14 14 15 15 15 15 15 15 15 14 15 14 13 14 14 14 14 14 14 15 15 14 14 13 13 13 14 14
18 15 22 13 9 10 12 11 11 10 10 9 11 13 13 13 14 14 14 15 14 14 14 14 15 15 15 15 15 15 15 15 15 15 15 15 16 16 15 15 15 15 15 15
21 19 15 13 11 12 13 13 11 11 10 11 13 13 14 13 13 14 14 14 14 13 13 14 15 15 16 16 16 16 16 15 15 16 16 16 16 16 16 16 16 16 15 15
15 20 22 15 11 9 10 15 12 12 12 12 13 14 17 13 14 14 14 14 14 13 13 14 14 15 16 17 17 18 17 16 16 16 16 17 17 17 17 16 17 16 17 16
16 18 16 12 11 10 16 17 13 13 14 13 16 15 14 14 15 15 14 14 14 14 14 15 14 15 16 17 18 17 17 17 17 16 16 17 17 17 17 17 17 17 17 17
15 17 19 11 12 16 14 12 13 14 14 16 16 16 17 17 17 16 16 15 15 15 15 14 14 15 16 17 17 17 17 18 18 18 17 17 17 17 18 17 18 18 18 18
14 16 11 11 12 12 12 13 13 14 15 16 17 18 18 18 18 18 17 16 16 16 16 15 14 14 16 16 16 17 18 18 18 18 18 18 19 18 18 18 18 18 18 18
13 13 12 11 12 12 12 14 14 15 16 17 18 18 19 20 19 19 18 17 16 17 17 17 16 15 13 14 15 16 17 18 18 18 18 18 18 18 19 19 19 18 18 18
14 13 12 12 12 12 13 13 14 14 14 15 17 17 17 18 19 19 19 18 17 17 17 17 17 16 15 14 14 16 16 17 18 18 18 18 18 18 18 17 17 19 18 18
18 12 13 13 11 11 13 14 14 15 16 15 16 17 17 18 17 18 19 18 19 19 18 18 18 17 17 15 14 15 16 17 17 18 18 18 18 19 16 16 15 15 15 16
15 11 12 11 12 12 13 14 14 14 15 16 16 16 16 17 17 17 18 19 20 20 20 20 20 20 19 17 16 16 16 15 17 18 19 19 20 20 21 19 17 16 15 16
11 11 13 12 13 12 12 13 13 14 15 15 16 16 16 17 17 18 18 18 19 19 21 22 22 22 21 20 18 19 19 19 19 20 20 21 21 21 21 21 22 21 19 17
10 10 11 12 12 13 13 14 15 15 16 16 16 16 17 18 19 19 18 18 18 20 21 21 22 22 22 21 21 20 21 22 23 21 21 21 21 21 21 21 21 22 21 21
9 10 11 12 13 14 14 15 16 16 16 16 17 18 18 19 19 20 20 20 21 23 22 24 22 23 21 22 21 21 21 19 20 20 21 21 21 21 21 21 22 23 23 23
12 13 12 13 14 14 14 15 15 16 16 17 18 17 18 19 20 21 24 24 26 28 28 27 25 23 22 21 20 21 21 20 20 20 20 21 21 21 21 21 22 22 23 23
12 12 12 12 13 15 16 16 16 17 19 19 21 23 24 24 26 28 28 29 28 26 26 26 25 23 22 20 19 19 19 19 19 20 19 21 20 20 21 21 21 22 23 24
12 13 13 14 15 16 18 18 20 21 23 24 24 27 30 32 31 31 32 30 29 27 25 25 19 21 20 19 19 19 20 21 20 20 20 21 22 21 23 23 23 23 22 22
15 15 16 18 18 19 21 23 22 24 28 27 29 30 30 32 34 32 32 29 28 27 26 23 22 21 20 20 22 20 21 23 20 22 22 22 26 26 24 23 23 26 28 27
20 21 22 22 25 25 26 28 26 27 32 32 29 31 30 32 33 33 27 24 25 24 22 23 23 22 21 22 22 26 24 26 25 25 26 27 28 22 24 24 24 25 28 28
25 24 25 25 25 28 31 30 27 29 30 32 35 35 32 28 30 28 29 24 23 25 23 23 24 27 24 25 22 27 23 23 25 23 22 22 24 25 25 25 25 25 26 24
24 24 25 26 24 26 28 29 30 30 30 31 30 30 27 24 23 24 24 21 21 24 22 25 28 29 29 30 30 30 29 28 27 27 28 29 28 26 24 23 24 25 28 28
22 21 23 23 23 21 22 22 22 22 28 24 26 28 23 25 25 21 22 24 26 28 28 29 29 27 28 30 30 30 29 29 29 30 27 28 31 30 29 28 27 28 30 30
20 20 21 21 20 21 19 19 19 19 19 18 19 19 20 20 23 22 25 25 25 25 26 27 26 26 30 30 29 29 29 29 29 29 29 30 29 29 27 27 26 23 24 24
18 19 20 19 19 19 19 19 21 20 20 22 23 27 26 22 20 20 21 24 24 22 24 26 27 28 28 27 27 27 26 25 27 27 28 27 30 29 29 28 29 27 23 21
18 19 19 20 19 20 20 20 22 23 25 28 26 28 26 28 28 23 21 23 23 22 21 20 20 19 19 19 19 20 21 21 23 22 25 24 25 24 26 25 26 27 28 24

GFSNGP_con_lsi_099.txt.gz
Lid_Strength_Index
13 13 13 13 14 14 15 14 17 16 15 13 10 9 10 10 10 11 12 13 13 14 14 14 14 14 14 14 13 13 13 12 12 12 12 12 9 10 3 5 6 6 7 9
15 13 13 14 13 14 14 13 14 13 13 8 8 9 10 11 11 12 13 14 14 14 14 15 15 15 15 14 14 13 14 14 13 13 13 13 13 12 12 10 11 11 12 12
18 14 15 17 14 13 11 10 11 14 11 8 10 10 11 11 11 13 14 14 14 14 14 15 15 15 15 15 14 14 15 15 14 13 14 13 14 15 15 15 14 14 14 14
17 16 22 13 10 10 11 10 10 10 9 8 9 11 11 11 12 13 14 14 14 14 14 14 14 15 15 15 15 15 15 15 15 15 15 14 15 16 16 16 16 15 15 14
17 17 15 12 11 12 12 12 12 12 10 11 11 11 13 11 13 14 14 14 14 14 14 14 14 14 15 16 15 16 16 17 16 16 16 16 16 16 16 17 17 16 15 15
15 18 19 14 11 9 10 15 12 13 13 12 12 13 15 13 13 14 14 14 14 13 14 15 14 14 15 16 17 17 17 16 16 16 16 17 17 17 17 16 17 17 17 16
15 16 14 12 11 10 16 16 12 13 14 12 15 15 15 14 15 14 14 14 13 13 14 14 14 14 16 16 17 16 16 16 16 16 16 16 17 17 17 17 17 18 18 18
14 16 18 11 12 15 14 12 13 14 14 15 16 16 16 16 16 16 15 15 14 14 14 14 13 14 15 16 15 15 16 16 17 17 16 16 17 17 17 16 17 18 18 19
14 15 11 11 13 12 12 13 13 14 15 15 17 18 18 18 18 17 16 16 15 15 15 14 14 14 15 14 14 15 15 16 16 16 16 16 16 16 16 16 17 17 18 17
13 12 12 11 11 12 12 13 14 14 15 16 17 17 18 18 18 18 17 16 15 15 15 16 15 14 14 13 13 14 15 15 15 15 16 15 15 16 16 16 16 16 16 17
13 12 12 12 12 12 13 13 14 14 15 15 16 16 16 17 17 17 17 17 16 16 16 16 15 15 14 14 13 14 15 14 15 15 15 16 15 15 15 15 15 16 16 16
15 12 12 12 11 11 13 13 14 15 15 15 15 16 16 17 16 17 17 17 17 17 17 17 16 15 15 13 13 13 14 15 15 15 15 15 16 16 15 15 15 15 16 16
12 11 12 12 12 12 13 14 14 14 14 15 15 15 15 16 16 16 17 17 19 19 19 18 18 18 17 15 14 14 14 14 15 15 16 16 16 16 16 16 17 16 16 16
10 11 13 12 13 12 13 13 13 14 14 15 15 15 15 16 16 17 17 17 17 18 19 19 19 19 19 17 15 16 15 17 15 15 16 16 16 16 17 17 19 19 18 18
10 10 11 11 12 13 13 13 15 15 15 15 15 16 16 17 18 19 18 17 17 18 19 19 19 19 19 18 16 15 14 14 14 15 16 16 16 16 16 17 18 18 18 18
10 11 11 12 13 13 13 14 15 15 15 16 16 17 18 18 18 19 19 19 19 21 21 21 19 20 19 18 15 14 14 16 16 14 15 15 15 16 16 16 17 18 18 18
11 12 11 13 13 14 14 14 14 15 16 16 17 17 18 18 19 20 21 22 22 23 22 22 21 20 19 18 15 14 14 14 16 14 15 15 16 16 16 17 17 18 18 19
10 10 9 11 12 14 14 15 15 16 17 17 19 20 21 21 21 22 23 23 22 21 22 22 20 19 19 17 16 15 15 15 15 15 15 15 16 16 16 16 17 18 18 19
10 11 11 12 13 14 16 17 18 19 20 21 21 23 24 24 23 23 24 22 22 20 21 21 19 18 18 18 17 16 16 15 15 16 15 17 16 16 16 16 17 17 17 18
14 14 14 15 16 17 19 20 20 22 23 23 25 23 23 25 25 24 23 21 21 20 21 20 19 18 18 18 19 16 16 16 17 16 17 16 16 16 16 18 16 17 17 17
17 17 19 20 22 22 23 23 22 23 25 25 22 23 23 24 25 25 20 19 20 20 20 20 20 18 18 19 17 17 17 17 17 17 18 17 17 16 16 15 15 15 16 16
20 21 22 22 22 24 25 23 23 25 25 25 27 27 24 21 22 22 22 19 18 22 19 18 19 23 20 21 18 17 17 17 17 16 16 16 16 15 15 15 15 15 15 15
20 21 22 22 21 22 23 23 24 23 24 24 23 22 19 18 18 18 18 18 17 20 17 17 22 24 24 17 17 17 16 16 15 15 15 15 15 15 15 15 14 14 14 15
20 20 21 21 21 20 21 21 21 21 22 21 21 22 19 17 17 17 16 20 22 21 18 18 20 23 25 17 16 16 15 14 15 14 14 19 14 15 14 14 14 13 15 16
19 19 20 20 19 18 18 18 18 18 18 17 17 17 18 17 17 16 17 17 21 20 16 22 23 23 17 16 16 16 15 15 14 15 14 14 14 15 14 14 14 14 14 14
18 18 18 17 17 17 17 17 17 17 16 16 17 18 18 18 18 17 17 18 18 20 16 16 17 16 15 15 15 15 15 15 15 15 15 14 15 15 15 15 15 14 14 14
17 18 17 17 16 16 16 16 17 17 19 17 18 18 19 19 19 19 19 17 17 17 16 16 15 16 15 15 14 14 14 14 15 14 14 14 15 15 15 15 14 14 15 15

GFSNGP_con_lsi_102.txt.gz
Lid_Strength_Index
13 13 13 13 12 12 13 12 15 13 13 10 8 7 7 8 9 10 11 10 10 10 10 10 11 12 12 14 14 13 14 14 13 12 11 12 12 11 9 5 2 2 4 5
15 12 12 13 12 12 12 12 12 12 12 7 6 6 9 9 9 10 10 11 11 11 11 12 12 13 13 13 14 14 15 14 14 14 12 12 13 13 13 13 11 9 9 8
16 13 13 15 12 11 11 11 10 12 10 7 8 8 9 10 10 11 11 11 12 12 12 12 13 13 14 14 13 15 15 15 15 15 15 14 13 14 15 15 15 14 13 13
14 14 18 12 8 9 11 9 9 9 9 8 9 10 9 9 10 11 11 13 13 13 13 13 13 14 13 13 14 14 15 15 16 16 16 15 15 15 16 16 16 17 16 14
14 14 13 12 11 11 12 13 10 11 10 11 10 9 11 10 10 12 13 12 13 13 13 14 13 13 13 14 14 15 15 15 15 16 16 16 17 16 16 16 17 17 17 16
13 17 17 13 9 8 10 14 11 11 12 10 10 11 13 12 12 13 13 13 13 13 13 13 13 13 13 14 15 16 16 16 15 15 16 16 16 17 17 17 18 18 19 17
13 14 14 12 9 9 15 14 12 12 13 11 13 13 13 13 14 13 13 13 12 12 13 12 12 12 14 14 15 15 14 15 15 15 15 15 15 15 16 17 17 18 19 19
12 15 18 9 10 13 13 11 12 13 13 14 14 14 14 15 15 14 13 13 12 13 13 12 12 12 13 14 13 13 13 14 15 15 15 14 15 15 15 16 16 17 18 18
12 13 11 10 12 11 11 12 12 13 14 14 15 16 16 16 15 15 14 13 12 12 13 13 12 13 13 12 12 12 13 13 13 13 14 14 15 15 14 15 15 16 16 17
11 11 11 11 11 11 11 12 13 13 13 14 16 16 16 15 15 15 15 14 13 13 14 14 13 13 13 12 11 12 12 13 13 13 13 13 13 14 16 15 15 16 16 16
12 11 11 11 11 11 12 12 13 13 13 14 14 14 14 14 14 14 14 14 14 14 14 14 13 13 12 12 11 12 13 13 13 13 13 13 14 15 14 15 15 16 16 16
11 10 10 11 11 11 12 13 13 13 13 13 13 14 14 14 14 14 15 15 15 15 15 14 14 14 13 12 12 12 12 13 13 12 13 13 13 14 15 15 15 15 15 15
10 9 10 10 10 11 12 13 13 13 13 14 13 13 13 14 14 14 14 15 16 16 15 15 15 15 15 13 12 13 13 13 12 13 13 13 13 14 14 14 16 16 15 15
8 10 12 11 12 11 12 12 12 12 12 12 13 12 13 14 14 14 15 15 15 15 16 16 16 16 15 14 13 12 12 13 12 12 12 12 13 13 13 14 15 15 16 17
9 8 9 10 11 12 12 12 13 13 13 13 13 13 13 14 15 16 15 15 15 16 16 16 17 17 15 14 13 12 12 12 11 11 12 13 12 13 13 14 14 14 14 15
9 9 10 11 12 11 12 12 13 13 13 13 14 14 15 15 16 16 16 17 17 18 18 18 17 17 16 15 13 12 12 14 13 12 12 12 12 13 13 13 14 14 15 16
10 11 10 11 11 11 11 11 12 13 13 13 14 15 15 16 16 17 18 18 19 19 18 19 18 18 17 15 13 12 12 12 13 12 13 13 13 13 13 14 14 14 15 17
7 7 8 9 10 11 12 12 13 13 14 14 16 17 18 18 18 19 19 19 18 18 19 19 17 17 16 16 14 13 13 13 13 13 13 13 13 13 13 14 14 15 15 16
8 8 8 9 10 11 12 13 14 16 17 17 18 18 19 19 18 19 19 18 18 17 19 18 17 17 16 17 15 14 14 14 14 14 14 14 13 14 14 14 15 15 15 15
10 10 10 11 12 13 15 16 16 17 18 18 19 19 19 20 20 20 18 18 18 18 18 18 17 16 16 16 16 14 14 14 15 14 15 14 14 14 14 16 15 15 15 15
12 13 15 16 17 17 17 18 18 19 19 19 17 18 18 19 20 19 17 15 17 18 18 18 17 16 16 16 15 14 15 15 15 15 15 15 15 14 14 14 14 14 14 14
15 16 18 18 18 19 18 17 18 20 19 20 21 21 19 18 19 18 18 17 15 20 17 16 16 19 17 18 15 15 15 15 14 14 13 13 13 13 13 13 13 12 12 12
16 17 17 19 18 18 18 18 19 19 19 20 19 18 16 14 14 14 15 16 15 17 15 15 19 20 20 15 14 14 14 13 13 12 12 12 12 13 13 13 13 12 12 12
16 16 16 17 18 17 18 18 17 17 18 17 18 18 16 14 14 14 13 16 18 17 15 15 16 19 20 14 13 12 12 12 12 11 11 14 12 12 12 12 13 12 12 13
16 16 17 17 16 15 16 16 16 16 16 15 15 16 16 14 14 14 14 14 18 17 14 19 20 19 14 13 12 12 12 12 11 11 11 11 11 12 12 12 12 12 12 12
15 15 15 15 14 14 14 14 14 14 14 14 14 14 14 14 14 14 14 16 15 16 14 14 15 14 13 12 12 12 12 12 12 12 12 12 11 11 12 12 12 12 12 12
14 14 14 14 13 13 13 13 13 14 14 14 15 14 14 14 14 15 16 15 15 15 15 15 14 14 14 14 13 13 13 13 14 14 13 13 12 12 12 12 12 11 11 12

GFSNGP_con_lsi_105.txt.gz
Lid_Strength_Index
12 12 12 12 12 11 12 12 14 13 12 10 8 8 7 6 7 8 9 10 10 9 9 9 9 9 9 10 10 12 13 14 15 14 13 12 12 12 12 12 11 6 3 5
13 12 13 14 12 12 12 11 11 11 11 7 7 6 7 8 9 9 10 11 11 10 10 10 10 10 10 11 11 12 14 15 15 14 15 14 13 13 14 13 14 13 12 10
15 13 13 14 12 11 10 9 10 12 9 8 8 9 10 9 10 11 11 11 11 11 11 11 11 11 11 11 12 13 14 15 15 15 15 16 15 15 14 14 14 16 15 14
13 13 17 11 8 9 10 9 8 9 9 9 10 10 9 9 10 11 11 11 11 11 11 11 11 12 11 11 13 14 14 15 15 15 16 16 16 16 16 16 16 16 16 16
14 13 11 11 10 11 12 12 10 10 9 8 9 9 11 10 10 10 10 10 11 11 11 12 12 12 12 13 13 14 15 15 15 14 15 15 16 17 17 18 18 18 17 17
12 16 17 13 9 7 8 13 10 10 10 10 9 11 13 11 11 11 11 11 11 12 12 12 13 12 13 13 13 15 15 15 14 14 15 15 15 16 16 16 18 18 19 18
12 14 14 10 8 7 15 14 11 12 12 10 11 12 12 12 13 12 11 11 11 11 12 12 11 11 13 13 13 13 13 13 14 14 14 14 14 15 15 16 16 17 18 19
11 14 17 8 8 12 12 10 11 12 12 13 13 13 13 13 13 13 12 12 11 11 12 11 11 11 12 12 11 11 11 12 13 14 14 14 14 14 14 15 15 16 16 17
12 13 10 9 11 10 10 11 12 12 12 13 14 14 14 14 14 14 13 12 12 12 12 12 12 12 12 11 10 10 10 12 12 12 13 13 14 15 16 15 15 16 16 17
10 11 11 11 10 10 10 11 11 11 12 13 15 15 15 14 14 14 14 13 12 12 12 12 12 11 11 11 10 10 11 11 11 11 12 13 13 13 15 16 16 17 17 17
12 11 10 10 10 11 11 11 12 12 12 13 13 13 13 13 13 13 13 13 12 12 12 13 12 12 11 11 11 11 11 12 11 11 12 12 14 14 15 15 15 16 16 17
11 9 9 11 10 10 11 12 12 12 12 12 12 13 13 13 13 13 14 13 14 14 14 14 13 14 13 12 11 12 12 12 12 12 11 12 12 13 14 15 15 15 15 15
9 7 9 10 10 10 11 11 11 12 11 12 12 12 12 13 13 13 13 14 14 15 14 14 15 15 14 12 12 12 12 12 11 12 12 12 12 13 13 13 15 15 15 16
8 8 11 10 11 10 10 11 11 11 11 11 11 11 11 12 12 13 14 14 14 14 15 15 15 16 14 13 12 12 11 12 11 11 12 12 12 12 12 13 13 13 14 15
8 7 8 9 10 10 10 11 12 12 12 12 11 11 11 13 14 14 13 13 14 15 16 16 17 16 14 13 12 12 12 12 11 11 11 12 11 12 12 12 13 13 13 13
8 8 9 10 10 11 11 11 12 12 12 12 12 13 13 13 14 15 15 16 16 17 17 18 17 17 15 14 13 11 11 13 12 11 12 12 12 12 13 13 13 13 15 16
9 10 10 11 11 10 10 10 11 11 12 12 13 12 13 14 15 16 17 17 17 18 17 18 17 16 16 15 14 12 12 12 13 12 12 12 13 13 13 13 14 14 14 16
7 7 7 8 10 10 11 11 11 12 12 12 14 15 16 17 17 18 17 17 17 17 17 17 17 16 16 16 15 13 13 13 13 13 13 13 13 13 13 13 14 14 14 14
7 7 7 8 8 9 11 12 12 13 15 16 16 17 17 17 17 17 17 16 16 16 18 17 16 16 16 16 16 13 14 14 14 14 14 14 13 13 13 13 14 14 14 14
7 7 8 9 9 10 12 13 14 15 15 16 17 17 17 18 18 18 16 17 17 17 17 17 16 15 16 15 15 14 14 14 15 14 14 14 14 14 13 14 14 13 13 14
9 10 11 12 13 13 14 15 16 17 17 16 16 16 17 17 18 17 16 14 16 17 17 17 16 16 15 16 15 14 15 15 15 15 14 14 14 13 12 12 12 11 11 12
12 13 14 15 15 15 15 15 16 17 17 17 17 18 18 17 17 16 17 15 14 18 16 14 15 18 17 18 15 14 15 15 14 14 13 13 13 13 12 12 12 12 11 11
14 14 15 15 15 15 15 16 17 17 17 18 18 17 14 13 13 14 14 15 14 16 15 14 18 18 18 15 14 14 14 13 13 12 12 12 12 12 12 12 12 12 12 12
14 14 15 14 15 16 17 16 15 16 16 16 16 16 14 14 13 13 13 15 17 16 15 14 16 18 19 15 14 14 13 12 12 11 11 11 11 11 11 12 12 12 11 12
13 13 14 15 15 14 15 15 15 15 15 14 14 15 15 13 14 13 13 13 15 16 14 17 17 17 15 14 14 13 13 12 12 12 12 11 11 11 10 11 11 11 11 12
13 13 14 13 12 13 13 13 13 13 13 14 14 13 13 13 13 13 13 15 14 15 14 14 15 15 15 15 14 13 13 13 13 13 13 12 12 11 11 11 11 11 11 11
12 13 12 12 12 12 12 12 12 13 13 12 13 13 13 13 14 14 15 14 14 15 15 15 15 16 15 15 14 14 14 14 14 14 14 14 14 14 14 14 13 13 12 12

GFSNGP_con_lsi_108.txt.gz
Lid_Strength_Index
10 11 11 11 12 11 12 12 14 13 13 10 9 9 9 9 8 10 10 10 10 11 11 11 11 11 10 10 11 11 12 12 13 13 13 13 14 14 13 12 12 12 12 11
13 11 12 13 12 12 12 12 12 12 12 9 9 9 9 9 9 10 10 11 11 11 11 11 12 11 11 11 11 11 12 12 13 13 14 14 15 15 15 15 14 14 14 14
16 12 13 16 13 12 11 10 10 12 10 9 10 10 10 10 10 11 11 12 12 12 12 12 12 11 11 11 11 12 12 13 13 13 14 15 15 16 17 17 16 16 15 15
15 15 19 12 9 9 10 10 9 9 9 9 10 10 11 10 11 11 11 12 12 11 11 11 11 11 11 11 12 12 13 13 14 14 14 14 15 16 17 18 18 18 17 16
16 15 12 11 10 11 12 12 10 10 9 9 9 11 12 11 11 11 11 10 11 10 10 10 11 11 12 12 12 13 13 14 14 14 15 15 15 15 16 17 18 18 18 18
13 16 17 13 9 7 8 14 10 11 11 10 9 13 14 12 11 11 11 11 11 11 11 11 11 11 12 13 13 14 14 14 14 14 15 15 15 15 15 15 16 17 18 18
13 14 14 10 8 7 15 15 11 12 12 10 13 13 13 12 12 11 11 11 11 11 12 12 11 11 12 12 13 13 12 13 13 14 14 15 15 15 15 15 16 17 17 17
12 14 17 9 8 12 11 10 12 12 12 13 13 14 14 13 13 13 12 11 11 12 12 12 12 12 12 12 12 11 11 12 13 13 14 14 16 16 16 16 17 17 17 18
13 13 11 9 10 9 9 11 12 13 13 13 14 14 14 15 14 14 13 12 12 12 13 12 12 12 13 12 10 11 11 11 12 12 13 13 14 15 16 16 17 18 18 19
11 11 11 10 10 10 10 12 12 12 13 13 15 14 15 14 14 14 14 13 12 13 13 14 13 12 12 11 11 11 12 12 11 11 12 13 13 14 16 16 17 17 19 20
11 11 10 10 10 11 12 11 12 12 12 13 13 14 14 14 14 14 13 13 13 13 14 14 13 13 12 11 11 11 11 12 12 12 12 13 15 15 15 16 16 17 17 17
12 9 9 11 10 10 12 12 12 12 13 12 12 13 13 13 13 13 14 13 14 14 14 14 14 14 13 11 11 12 13 12 13 13 13 13 13 14 14 14 14 15 15 16
8 7 9 10 9 10 11 11 11 11 11 12 12 12 12 13 13 13 13 14 15 16 15 16 16 16 14 13 12 12 13 12 12 13 13 13 13 13 14 13 13 14 14 14
7 8 11 10 11 10 10 11 10 11 11 11 11 11 12 12 13 14 14 14 14 16 17 17 17 18 16 15 13 14 13 13 12 12 13 13 13 13 13 14 15 15 14 14
8 7 8 9 9 10 10 11 12 12 11 11 11 11 12 13 14 14 14 14 15 16 17 17 19 18 17 16 15 12 13 13 13 12 13 13 13 13 14 14 15 15 17 17
7 7 8 9 10 10 11 11 12 12 12 12 12 12 13 14 15 15 16 16 17 18 18 20 18 18 17 17 16 13 13 14 15 13 13 14 14 14 15 15 15 16 17 18
8 9 9 10 11 11 11 11 11 12 12 12 13 12 13 14 15 17 17 17 19 19 19 19 19 19 18 18 17 14 14 14 15 14 14 14 15 15 15 15 16 16 17 18
6 7 8 9 10 10 10 10 11 11 12 13 15 17 18 18 18 19 19 18 18 20 18 19 18 18 18 17 16 14 14 14 15 15 15 16 15 15 15 16 16 16 16 16
6 7 7 8 9 10 11 11 13 15 16 16 17 18 18 18 18 18 17 18 18 18 18 18 16 16 16 16 16 15 15 15 16 16 16 17 16 16 16 16 16 16 15 15
7 7 8 9 9 11 13 15 15 15 16 17 18 19 19 20 19 19 18 19 19 18 17 17 16 16 16 16 18 15 16 16 17 17 17 17 17 17 16 16 15 14 13 13
9 10 11 12 13 14 14 14 16 17 17 18 17 18 18 18 19 20 16 16 16 17 17 18 17 17 17 18 17 16 16 17 17 17 17 17 16 16 15 15 14 14 14 14
10 12 13 14 14 14 15 15 16 17 17 18 19 19 19 18 19 17 18 16 16 21 16 15 17 21 19 21 16 16 16 16 16 16 16 16 15 15 15 15 15 14 14 13
12 13 14 14 15 14 14 16 17 17 18 19 19 17 15 14 14 14 15 15 14 19 15 16 20 21 21 18 16 16 16 16 16 16 15 14 14 14 14 14 14 14 13 14
13 14 14 13 15 16 17 16 15 16 17 16 17 18 15 14 13 13 14 17 19 17 16 16 18 20 22 17 16 16 17 16 16 15 15 16 14 14 13 13 13 14 13 14
13 13 14 15 14 15 15 14 14 15 15 15 15 15 15 14 14 14 14 14 16 17 15 18 19 20 16 16 17 17 17 16 16 16 16 16 16 15 15 15 15 15 13 14
13 13 13 13 12 13 13 13 14 14 14 14 14 13 13 13 14 14 14 16 15 16 15 15 17 17 17 18 18 18 17 17 17 17 18 17 17 16 16 17 17 16 16 15
12 12 13 12 12 12 13 13 13 13 12 12 14 13 14 14 15 15 16 15 16 16 16 16 16 17 18 18 18 18 17 17 18 19 18 18 18 18 19 19 18 17 16 16

GFSNGP_con_lsi_111.txt.gz
Lid_Strength_Index
11 11 11 12 12 11 12 12 16 14 14 12 11 11 11 11 11 12 12 13 13 13 13 13 12 12 12 12 12 12 13 12 13 12 12 12 13 14 14 14 14 14 13 13
13 11 12 14 12 13 12 12 12 13 14 11 11 11 12 12 12 13 13 13 13 13 13 13 13 12 12 12 12 12 12 12 12 12 12 13 13 14 15 16 16 16 16 15
16 12 13 17 13 12 11 11 11 15 12 11 12 13 13 13 13 14 14 14 13 13 13 12 13 12 13 12 12 12 12 12 12 12 13 13 13 14 15 16 17 17 17 17
15 16 20 13 10 10 12 12 11 11 11 11 12 12 12 12 13 13 12 13 13 13 12 12 11 11 11 11 12 12 13 13 12 13 14 13 14 14 15 16 17 18 18 18
17 17 14 13 12 14 15 13 11 11 11 12 12 13 13 12 11 12 12 11 13 11 10 10 10 10 10 12 12 12 13 14 13 14 15 15 15 15 15 16 17 17 17 17
16 19 21 16 10 8 9 17 12 12 13 11 12 15 16 12 11 11 11 12 11 11 11 11 11 11 11 12 12 13 13 14 14 14 15 16 16 16 16 16 17 17 18 18
16 17 15 10 8 7 18 17 12 11 13 12 15 15 14 12 13 13 11 11 11 11 12 12 11 12 13 12 13 12 12 13 14 14 15 16 16 17 17 17 18 18 18 18
14 17 19 10 10 13 14 11 12 12 14 15 15 14 14 14 15 13 12 12 11 13 13 13 13 13 14 14 13 12 12 13 14 14 13 14 16 16 17 18 18 20 20 20
13 15 11 10 11 9 9 12 12 13 13 14 15 15 15 15 15 14 13 13 13 14 14 14 14 14 14 13 11 12 12 12 13 13 14 14 15 16 16 17 18 18 20 20
13 12 12 11 10 10 10 12 12 12 13 14 16 16 16 15 15 15 14 14 14 15 16 16 14 14 13 12 11 11 13 13 12 13 14 14 14 15 16 17 18 18 18 18
12 11 11 11 10 11 11 11 12 13 14 15 15 15 15 15 16 16 16 15 15 15 16 16 15 15 14 13 12 12 12 13 13 13 13 14 14 14 15 15 15 17 17 18
13 11 11 12 10 10 12 12 12 13 13 13 14 15 14 15 15 15 16 15 16 16 16 16 16 16 15 14 13 13 13 13 13 14 13 13 14 15 12 13 13 14 14 14
11 10 11 10 10 10 11 11 12 12 13 13 13 13 14 14 14 14 15 16 19 19 19 20 19 19 17 16 14 14 14 14 13 14 14 14 14 15 17 15 14 14 14 14
9 10 11 10 12 10 10 11 11 11 12 12 12 12 13 13 14 15 16 16 17 18 20 20 20 20 19 18 17 17 17 16 16 16 16 16 17 18 18 19 20 19 17 15
9 9 9 9 10 10 11 11 12 13 12 12 12 13 14 15 16 17 16 16 16 18 19 20 21 20 19 19 19 18 17 18 18 17 18 18 17 18 18 19 22 24 22 19
8 9 9 10 11 11 12 12 13 13 13 13 14 15 16 16 17 17 17 17 18 20 20 23 20 22 21 22 21 19 18 17 18 17 17 17 17 17 18 18 20 23 22 23
10 11 10 11 12 12 12 12 12 13 14 14 15 15 16 16 17 18 20 21 24 25 25 25 25 23 23 22 20 18 18 17 19 17 18 18 18 18 17 19 19 19 23 24
8 9 9 10 11 12 12 12 12 13 15 15 17 18 19 21 22 25 24 24 26 26 26 25 25 24 23 21 19 17 17 17 17 18 17 18 18 18 18 18 18 19 18 20
6 8 9 9 10 11 13 14 15 16 18 18 19 21 21 22 23 24 26 26 27 26 24 24 17 20 19 18 19 17 18 19 19 18 19 20 21 19 21 22 21 21 20 18
7 8 9 10 11 13 15 16 16 17 18 19 20 21 23 26 27 25 26 25 25 23 23 20 18 18 18 19 21 18 19 21 19 21 23 22 26 27 26 23 22 23 24 22
10 11 13 14 14 15 15 16 17 18 20 20 21 23 23 26 25 23 21 20 22 21 19 20 20 20 19 21 19 22 22 24 24 23 25 26 26 26 27 27 26 25 25 25
12 13 14 15 15 16 16 17 18 19 20 20 22 23 25 25 26 24 25 20 19 23 19 18 20 24 22 24 19 20 21 21 22 22 22 20 21 19 18 18 19 24 25 24
14 14 15 15 16 16 17 18 18 19 21 22 23 23 20 18 17 18 21 17 17 22 18 21 24 25 26 25 19 23 25 25 25 25 24 27 24 19 19 19 20 18 17 20
14 15 15 15 16 17 18 17 16 18 21 19 21 23 17 17 16 16 18 22 23 24 23 22 22 24 25 21 24 24 24 22 23 23 24 25 24 20 20 21 21 19 18 17
14 14 16 16 16 16 16 16 16 16 16 15 16 16 16 15 19 20 18 20 20 21 21 22 22 25 27 28 26 27 26 22 24 28 30 29 26 22 22 22 22 22 20 18
14 15 15 14 15 15 15 15 16 16 16 19 19 19 20 18 17 17 20 21 19 21 21 22 25 25 27 27 29 30 29 25 26 27 29 25 27 24 25 25 24 23 22 20
13 14 14 14 14 14 15 15 16 17 16 16 17 18 18 20 22 20 21 21 22 23 25 27 24 23 25 27 29 28 28 27 29 29 25 29 30 31 30 29 26 25 22 22

GFSNGP_con_lsi_114.txt.gz
Lid_Strength_Index
12 11 11 12 13 12 12 12 15 14 14 12 12 12 12 12 12 13 14 14 14 15 14 14 14 14 13 13 12 13 13 13 13 13 12 12 13 12 13 13 14 14 14 14
14 11 12 14 13 13 13 12 13 12 13 10 11 11 12 13 13 14 14 14 14 14 14 14 14 14 14 13 13 13 14 13 13 13 13 13 13 13 14 14 14 15 15 15
17 13 13 16 15 12 12 12 12 15 13 12 14 14 13 13 13 14 15 14 14 14 14 14 13 13 14 13 13 13 13 13 13 13 14 14 13 14 14 15 16 16 16 16
16 14 20 14 10 10 13 13 12 12 12 12 14 14 13 12 13 13 13 13 13 13 12 12 11 12 12 12 12 13 14 14 13 14 14 14 14 14 15 15 16 17 17 17
17 17 15 13 12 13 14 16 14 13 13 14 13 13 14 12 12 13 12 12 12 11 11 11 12 11 11 11 11 12 14 14 14 15 16 15 16 16 15 16 17 17 17 18
16 18 20 16 11 10 12 19 14 13 11 13 13 16 16 12 11 12 12 11 12 13 15 14 12 12 11 11 12 12 13 14 14 14 16 17 17 17 17 17 18 18 18 18
15 17 16 12 10 9 18 17 13 13 15 12 13 17 14 13 13 12 11 12 13 13 14 14 12 12 13 13 14 13 12 14 14 15 15 16 16 17 17 17 18 19 19 18
15 18 19 12 10 13 15 13 13 15 15 16 15 15 15 15 15 14 13 13 14 15 15 14 13 13 14 14 14 14 14 13 14 14 14 15 16 16 16 16 17 18 18 18
15 17 13 11 12 11 11 13 12 15 14 15 16 16 17 17 19 16 15 15 14 15 15 15 15 15 15 14 13 13 13 13 13 13 14 14 15 15 15 15 16 16 17 17
15 13 12 11 10 10 10 12 12 12 13 14 16 18 18 18 17 17 16 16 16 16 17 16 15 15 14 13 12 12 13 13 13 13 14 13 14 14 15 16 16 16 17 17
13 12 12 11 11 11 11 11 12 13 14 15 16 17 16 17 17 19 18 17 16 17 17 17 15 15 15 14 13 13 13 13 13 13 14 14 14 14 15 15 15 16 15 16
15 11 12 12 11 10 12 13 14 14 15 14 15 16 16 17 17 17 18 18 18 18 18 17 17 17 16 15 14 14 14 14 14 14 14 14 15 15 13 14 14 14 13 14
13 10 11 11 10 10 11 12 13 13 13 14 14 15 15 16 16 16 17 18 20 21 20 21 20 20 19 16 15 15 15 14 15 15 15 16 16 17 19 18 15 15 15 14
10 11 12 11 12 10 11 11 11 12 13 13 14 14 14 15 14 16 17 17 18 19 21 23 23 23 22 20 18 19 18 18 18 18 18 19 20 20 22 22 22 22 19 16
10 9 10 9 10 10 11 12 13 13 13 13 13 14 15 16 16 16 16 16 17 18 20 21 23 22 23 22 20 21 19 21 21 21 19 20 19 20 21 23 25 26 25 22
9 10 10 10 10 11 12 12 13 13 13 13 15 16 16 16 17 17 17 17 18 20 21 25 21 23 22 22 20 19 18 18 19 19 19 19 19 19 19 20 20 20 23 24
11 12 11 11 11 12 12 12 13 13 14 15 16 16 16 17 18 19 22 22 23 25 28 27 26 24 23 22 18 19 19 18 21 19 19 20 20 20 20 20 21 20 19 20
9 10 10 11 11 12 12 12 13 14 15 15 16 18 20 20 21 23 25 26 25 25 27 28 28 25 22 21 19 18 19 18 18 19 19 21 20 19 21 21 21 21 22 20
8 9 10 10 10 11 11 12 14 16 17 18 19 20 21 22 23 25 25 24 27 26 25 25 17 21 20 19 19 18 20 21 20 19 21 22 23 22 24 26 25 27 25 23
9 9 9 10 10 11 14 15 16 17 18 19 21 21 22 26 26 25 25 23 24 24 24 21 19 19 19 19 21 19 21 23 20 21 22 22 24 24 23 22 23 25 31 29
10 11 11 11 13 14 14 15 16 18 19 19 20 21 21 24 25 23 22 20 22 22 19 21 20 21 20 21 20 24 24 24 24 25 27 27 27 25 23 24 24 23 22 22
12 12 13 13 14 15 15 15 16 18 19 20 22 23 22 23 24 24 24 20 19 23 19 20 20 25 23 22 21 24 23 24 25 25 26 27 27 28 28 27 25 23 22 20
13 13 14 14 15 16 16 16 17 17 19 20 21 22 20 19 18 19 20 18 18 22 19 22 25 26 25 24 25 27 27 28 30 30 32 33 31 27 27 28 27 24 22 21
13 13 14 15 16 16 17 17 17 18 19 19 21 21 17 18 20 16 18 22 24 22 22 24 25 26 27 27 28 29 29 31 33 35 31 32 32 31 31 32 30 28 26 24
14 14 15 15 15 16 16 16 16 17 17 16 16 17 15 15 18 19 20 22 20 21 24 26 26 28 30 31 30 30 33 35 36 35 35 36 36 36 36 34 33 31 29 25
14 15 14 14 15 16 16 16 17 17 16 19 21 20 21 18 19 19 20 20 21 22 22 23 27 30 31 30 31 32 34 33 34 34 36 37 37 36 37 34 33 32 28 27
13 14 14 15 15 15 16 16 17 18 19 19 18 23 20 21 19 19 22 22 23 25 25 26 28 29 30 31 32 34 35 36 35 35 39 39 39 39 39 38 36 35 32 31

GFSNGP_con_lsi_117.txt.gz
Lid_Strength_Index
13 12 12 13 13 12 13 13 16 14 14 12 11 12 13 13 13 13 13 13 14 14 14 13 13 14 14 14 13 13 13 14 14 13 14 13 13 14 15 15 14 14 14 14
15 12 12 13 12 13 11 11 12 12 13 10 11 12 13 13 13 14 14 14 14 14 14 14 13 14 13 14 14 14 14 14 14 14 14 15 14 15 15 16 16 15 15 15
17 13 14 17 13 12 13 13 12 15 13 12 13 13 13 14 14 15 14 14 13 13 12 12 12 12 13 13 14 14 14 15 15 16 16 16 15 15 16 16 16 17 17 16
16 15 20 14 11 10 13 13 12 12 12 12 14 14 14 14 14 15 14 13 13 12 12 12 11 11 11 12 13 14 14 14 14 15 16 16 17 17 17 17 18 18 17 17
17 17 14 14 13 14 14 15 13 13 14 14 14 15 15 13 13 13 15 14 13 12 12 14 13 12 10 11 11 13 13 14 14 15 16 17 18 18 18 17 18 18 17 17
15 18 20 17 11 10 12 19 14 14 15 15 16 20 16 12 13 14 14 12 13 15 16 14 13 12 12 13 13 13 14 14 14 14 16 18 18 19 18 18 18 17 17 17
15 17 17 12 10 10 20 18 14 13 14 14 16 17 13 12 14 13 12 14 13 14 15 14 13 13 14 15 15 13 13 14 15 15 16 17 17 17 17 18 18 18 18 17
15 18 20 11 11 15 16 15 14 16 15 12 14 14 14 13 13 13 14 14 14 15 15 15 14 14 14 15 15 14 14 14 15 15 14 14 15 15 15 16 16 16 17 17
14 16 13 12 14 14 13 14 15 16 14 14 15 15 15 17 17 16 15 15 15 16 16 16 15 15 16 14 13 13 13 14 14 14 14 14 15 16 16 15 16 16 17 17
14 14 13 13 12 11 12 13 14 14 15 15 17 16 18 18 18 19 18 18 17 17 17 17 16 15 15 14 13 12 13 13 13 14 14 14 14 15 16 16 16 16 17 18
14 13 12 12 11 12 12 12 13 13 14 16 17 18 17 18 19 19 21 18 17 17 17 17 16 15 15 14 13 13 13 14 14 14 15 15 14 16 16 16 15 16 17 18
15 12 12 12 12 11 12 12 13 14 15 15 16 17 17 18 18 18 19 19 19 18 18 17 17 17 16 15 14 14 14 15 15 15 16 16 16 17 15 15 15 15 15 16
12 10 11 11 11 10 12 12 13 14 14 15 15 16 16 17 17 17 19 20 21 22 21 21 21 20 19 17 15 15 16 16 16 16 17 17 18 19 21 19 16 16 16 16
10 11 12 12 12 11 12 12 12 13 13 14 15 15 15 16 17 18 18 18 18 20 21 23 23 22 22 21 19 21 21 20 20 20 21 22 24 24 25 25 28 25 20 17
10 10 11 11 10 11 12 12 13 14 14 14 14 14 15 16 17 17 17 17 17 19 21 22 22 24 24 25 22 22 20 22 24 25 25 23 22 23 22 22 22 23 25 22
10 10 11 11 11 12 12 13 14 14 14 14 15 15 16 17 17 17 18 17 19 20 21 25 22 26 25 24 22 20 21 20 21 20 21 21 20 21 21 21 22 22 21 21
12 12 12 12 11 12 12 12 13 13 14 15 16 16 17 18 18 19 21 21 23 27 27 27 26 27 24 22 19 19 20 19 21 19 20 21 21 21 21 22 23 23 23 25
10 10 10 10 11 12 12 12 12 13 14 16 17 19 21 21 21 23 25 27 26 25 27 27 28 24 22 21 19 19 19 19 19 20 20 21 22 21 22 23 22 23 24 24
10 11 11 11 11 11 11 12 13 15 17 17 19 21 22 22 22 24 26 25 25 24 23 25 17 20 19 18 19 19 20 21 21 21 21 24 24 22 24 24 24 25 25 24
11 10 10 10 10 11 12 14 15 16 17 18 20 22 23 24 23 24 26 23 23 23 23 21 19 19 19 20 21 20 22 24 22 24 25 25 28 29 27 26 26 26 25 24
12 11 11 10 11 12 13 14 16 17 18 18 19 21 21 24 24 24 23 20 21 21 19 20 20 21 20 21 21 26 26 27 28 28 31 33 32 30 31 31 30 29 26 25
11 11 12 12 13 14 14 14 15 17 17 18 19 20 22 23 24 24 24 20 19 22 19 20 21 25 23 23 23 27 26 26 28 29 31 32 32 34 34 34 33 31 28 26
12 11 12 13 13 15 15 15 16 17 18 19 19 19 19 19 19 19 19 18 18 21 19 21 25 27 27 27 29 31 30 31 32 34 35 35 36 38 38 37 35 35 33 29
13 13 14 14 14 15 16 16 16 16 17 18 19 18 18 18 20 17 18 20 21 22 21 23 27 28 29 30 32 32 33 36 37 38 35 37 41 41 40 41 38 36 34 31
14 14 14 14 14 15 15 15 16 16 17 17 17 17 16 16 19 20 20 21 20 21 24 27 28 30 31 33 32 34 37 38 39 40 41 41 42 43 43 42 41 39 34 35
14 14 14 13 14 15 15 15 16 16 16 17 18 18 19 18 19 19 21 21 21 23 24 28 30 32 32 32 34 37 37 35 38 39 41 41 42 41 43 40 40 39 38 37
13 14 14 14 14 14 15 15 17 17 17 17 18 24 20 20 20 20 21 21 22 23 25 29 30 31 32 34 35 37 38 39 39 39 43 43 43 44 43 42 42 41 40 39

GFSNGP_con_lsi_120.txt.gz
Lid_Strength_Index
13 12 12 13 13 13 14 14 16 15 14 12 10 11 13 14 14 14 14 14 14 14 13 13 13 13 13 13 14 14 14 15 15 15 15 15 15 15 15 15 15 15 15 14
14 12 12 14 13 13 13 13 13 13 13 10 11 12 13 14 14 14 14 14 14 13 13 13 13 13 13 13 14 14 15 15 15 15 16 16 16 16 17 17 16 16 16 15
17 13 14 16 13 12 12 12 12 15 12 12 13 13 14 14 13 14 14 14 14 13 13 12 12 11 12 13 13 13 14 14 15 15 16 16 16 17 17 18 18 17 16 16
16 15 20 14 12 10 12 12 11 12 12 12 13 13 13 13 14 15 15 14 13 12 12 12 12 11 11 11 12 13 14 14 14 15 16 16 17 17 18 18 18 17 17 16
17 17 14 14 12 14 14 14 13 13 13 14 14 14 15 13 14 16 16 12 12 12 13 14 13 12 11 12 12 13 14 14 14 15 16 17 18 19 18 18 18 18 16 16
15 19 20 16 11 10 12 17 13 13 14 15 14 17 19 15 14 14 14 14 14 15 14 14 13 12 13 14 13 14 14 14 14 14 16 18 18 18 18 21 19 18 18 17
16 17 15 12 10 10 18 17 12 12 13 14 17 18 16 14 15 14 14 14 14 14 15 15 14 14 16 15 15 14 13 14 14 14 14 16 16 16 16 18 17 17 18 19
15 17 20 10 10 14 15 14 14 14 14 16 15 13 14 15 14 15 15 15 15 16 16 15 15 14 16 17 16 14 14 14 14 14 13 14 16 16 16 16 17 18 18 18
15 16 14 12 13 13 13 15 16 16 15 14 14 14 14 15 16 18 17 16 15 16 16 16 16 15 16 14 13 13 13 14 14 14 14 15 16 17 17 16 17 18 19 19
15 14 14 12 12 12 13 14 15 13 13 13 15 17 18 18 18 21 19 17 17 17 17 17 16 15 15 14 13 13 13 14 14 14 15 15 15 16 17 17 17 18 19 20
15 13 12 12 12 13 14 14 14 14 14 15 16 17 17 18 19 19 21 19 17 17 17 18 17 16 15 14 13 14 14 14 15 15 15 16 17 16 17 16 16 18 19 19
14 12 13 13 13 13 14 14 14 15 15 15 15 17 17 18 18 18 20 19 19 19 18 18 17 17 16 15 14 14 15 15 16 16 17 17 17 18 15 15 15 15 15 17
13 11 12 12 12 11 13 13 13 14 15 16 16 16 17 18 18 18 20 21 22 23 22 21 21 20 19 16 15 16 16 16 17 17 18 19 19 20 22 20 17 16 16 16
11 11 12 11 12 12 12 13 12 14 14 15 15 15 16 17 18 19 20 20 20 21 22 23 22 23 23 21 19 21 21 20 21 22 22 23 27 27 28 27 28 25 21 17
11 11 11 11 11 12 12 13 14 14 15 15 15 15 16 17 18 19 18 17 18 19 21 21 21 24 25 23 22 24 24 25 26 25 25 25 24 24 25 25 25 24 24 21
11 11 11 12 12 12 13 13 14 14 14 15 15 15 16 17 18 18 18 18 19 20 21 22 21 25 25 25 23 23 23 21 22 22 22 22 22 22 22 23 23 24 23 23
12 12 12 12 12 13 13 13 13 14 14 15 15 16 17 18 19 20 21 21 22 24 26 23 25 27 25 24 20 21 21 20 22 20 21 21 22 22 22 23 23 23 24 26
10 10 10 11 12 12 12 12 12 13 14 15 17 18 20 20 22 23 24 25 24 24 26 27 27 25 24 23 21 19 20 20 20 20 21 23 22 22 24 24 24 25 25 24
11 11 11 11 11 11 12 12 12 13 16 17 19 20 20 22 23 24 26 23 24 23 24 25 17 20 19 19 19 20 21 22 22 23 23 25 26 25 26 27 27 27 26 25
11 11 11 11 11 11 12 13 14 15 16 17 20 21 22 23 24 26 26 23 23 23 23 21 19 18 19 20 21 21 22 24 23 25 27 27 32 33 31 30 29 29 31 28
13 13 13 12 13 12 13 14 15 16 17 17 19 21 21 23 23 24 22 21 23 22 19 20 20 20 20 21 22 26 27 28 29 30 33 36 36 34 36 36 36 34 33 31
16 15 14 12 12 14 13 14 15 16 17 17 19 20 21 22 22 23 23 20 19 22 20 20 20 23 22 23 23 27 27 28 30 31 34 35 38 40 41 41 40 38 37 36
16 14 13 12 12 13 14 14 15 15 17 18 18 19 19 19 19 19 20 18 18 21 19 21 25 26 27 28 30 32 33 34 35 35 38 41 42 43 42 42 41 41 39 35
14 14 14 13 14 14 15 15 15 15 16 17 17 18 18 18 18 16 17 19 20 20 22 25 26 27 28 30 33 34 36 38 39 40 39 41 45 45 44 45 42 41 40 39
14 14 14 14 14 14 15 15 15 16 16 17 16 16 16 15 18 19 19 20 20 21 24 27 28 30 30 33 35 36 40 40 42 42 43 43 44 45 46 45 45 44 42 40
13 14 13 12 13 14 15 15 16 16 16 17 17 18 18 17 18 19 20 20 22 24 26 30 30 30 32 33 36 39 37 36 40 41 43 43 44 43 45 44 45 43 42 42
13 13 14 14 14 14 14 15 16 16 16 16 18 18 19 19 20 20 21 22 23 25 27 29 29 30 31 35 36 36 37 40 41 40 45 45 45 46 46 46 45 43 42 42

GFSNGP_con_lsi_123.txt.gz
Lid_Strength_Index
12 11 11 12 12 12 13 13 15 13 13 10 9 9 9 11 12 13 13 13 12 13 12 12 12 12 12 12 12 12 13 14 14 13 14 14 14 14 14 14 14 14 14 14
14 11 12 13 12 11 11 12 12 12 13 8 7 8 12 12 12 13 13 13 13 13 13 12 12 12 11 11 11 12 13 14 14 14 14 14 14 14 14 14 14 14 14 15
16 12 13 16 13 12 11 10 11 14 11 9 10 11 11 12 12 13 13 13 13 13 12 12 11 11 11 11 11 12 13 13 14 14 14 14 14 14 14 14 15 15 15 15
15 14 20 11 10 9 11 10 9 9 9 9 9 10 11 11 12 13 13 13 13 13 12 11 10 10 10 11 11 12 12 13 13 14 14 14 15 15 15 14 15 15 15 15
17 17 14 11 11 11 12 12 9 9 10 11 12 12 13 12 12 12 12 12 12 11 11 11 11 10 11 11 12 12 13 13 14 14 15 15 16 15 15 15 15 15 16 16
15 18 19 12 10 9 9 14 9 8 11 13 12 14 13 12 13 13 12 12 12 12 12 12 12 12 12 13 13 13 13 13 13 14 15 16 15 15 14 14 14 14 15 15
16 17 14 10 9 9 15 12 9 9 11 12 12 12 13 13 14 13 12 12 12 13 14 14 13 13 14 13 14 13 12 13 13 13 14 14 14 13 13 14 15 15 16 15
14 16 17 9 10 12 9 11 10 11 12 13 14 14 15 15 14 13 13 13 13 13 14 13 12 13 14 14 13 12 12 13 12 13 13 13 14 14 14 15 16 16 16 16
12 13 11 10 10 10 10 11 12 11 12 13 14 15 14 13 14 15 14 14 13 13 14 13 13 12 13 13 12 12 12 13 13 13 13 14 14 15 15 15 16 16 16 17
11 11 11 10 10 10 11 11 12 11 12 13 14 13 14 14 15 15 15 14 14 14 15 15 14 13 13 13 12 12 13 13 13 13 14 14 14 14 15 15 16 17 17 17
12 12 11 10 10 10 12 12 12 12 12 12 13 14 14 15 16 16 16 15 14 15 15 15 14 14 13 12 12 13 13 13 14 14 15 15 15 15 15 15 15 16 16 17
11 9 9 10 10 12 13 13 13 13 13 12 13 14 14 16 15 15 16 15 16 16 16 16 15 15 14 12 12 13 14 14 14 15 15 15 16 16 15 15 15 16 16 16
9 9 10 10 11 11 13 13 13 12 12 13 13 14 14 16 16 16 16 17 18 18 18 18 17 17 16 14 13 14 15 15 15 16 16 17 17 17 18 17 17 17 17 16
10 10 12 11 13 12 12 12 11 12 13 13 14 13 14 16 16 17 17 18 18 19 19 18 18 19 18 16 17 18 17 18 16 16 16 17 17 18 18 19 19 19 18 18
10 10 10 11 11 12 12 13 13 13 14 14 13 14 15 16 17 17 17 16 17 18 18 18 19 19 19 18 17 17 16 17 17 17 17 17 17 17 18 18 19 19 18 18
11 11 11 11 12 12 12 13 13 13 13 14 14 15 15 16 17 17 16 17 17 17 17 18 18 19 18 17 17 17 17 18 17 16 16 17 17 18 19 19 19 19 20 21
12 13 12 12 12 12 12 12 12 13 13 14 14 15 16 17 17 18 18 18 19 19 18 18 19 21 18 17 16 16 16 16 18 17 18 18 19 19 20 20 21 21 21 22
9 9 9 10 11 12 12 12 12 12 13 14 15 17 18 18 18 20 21 21 21 21 19 19 19 19 18 17 16 16 16 17 17 18 19 20 20 20 21 21 22 22 22 22
9 10 10 10 10 11 11 12 12 12 14 16 17 18 18 19 20 21 22 21 20 19 19 19 16 16 16 17 16 17 17 18 19 19 20 22 22 22 23 23 23 23 23 23
10 10 10 10 10 11 11 12 13 14 15 15 17 19 19 20 21 22 20 19 18 17 18 16 16 16 17 17 18 18 19 19 20 21 21 22 23 24 24 26 25 25 25 24
11 11 12 12 12 12 12 13 14 15 16 16 17 18 19 20 20 21 20 19 19 19 17 17 16 17 18 19 19 20 20 21 22 22 23 24 25 25 26 26 26 27 26 26
13 13 13 13 13 13 13 12 13 15 15 16 17 19 20 20 21 19 18 17 18 18 17 17 17 19 19 20 20 21 22 22 23 23 24 25 26 26 27 28 28 28 27 27
13 12 12 13 12 12 12 13 13 14 15 16 17 18 18 18 17 17 18 17 17 18 17 17 20 22 23 21 21 22 23 23 24 25 26 27 27 28 28 28 28 29 29 28
13 12 13 12 12 13 14 13 13 13 14 15 16 16 16 17 17 15 15 17 17 17 17 21 22 23 22 22 23 23 24 25 26 26 27 31 28 28 28 30 29 29 29 30
12 13 13 13 13 13 13 13 14 14 14 15 15 15 15 14 15 15 15 16 18 18 19 23 24 24 22 23 23 24 25 25 26 26 27 27 28 29 29 30 31 30 30 29
12 12 12 12 12 13 13 14 14 14 15 15 15 14 14 14 15 16 17 17 18 20 20 22 22 23 23 24 24 25 26 27 27 27 28 28 29 29 30 30 30 30 30 29
12 12 13 13 13 13 13 13 14 15 15 15 16 15 15 16 16 17 18 18 19 20 22 22 23 23 23 24 25 26 26 27 29 27 28 29 29 30 31 31 30 30 29 29

GFSNGP_con_lsi_126.txt.gz
Lid_Strength_Index
10 9 9 11 11 10 11 12 15 12 11 8 7 7 7 6 7 9 10 10 9 10 11 11 11 10 10 10 9 9 10 11 11 11 11 11 11 11 11 11 12 12 12 12
12 9 9 11 9 9 9 9 10 10 11 6 5 5 7 6 9 10 10 10 10 10 11 11 11 10 10 10 10 9 10 11 11 11 11 12 11 11 11 12 12 12 12 12
14 10 11 15 11 10 9 8 9 12 8 6 7 7 7 7 8 9 10 10 11 11 11 11 11 10 10 9 9 10 11 11 11 11 12 12 12 12 12 12 12 13 13 12
14 13 19 10 7 7 9 8 7 8 7 6 6 6 6 5 7 9 10 10 11 11 11 11 10 10 9 9 9 10 11 11 11 12 12 12 12 13 13 12 13 14 14 14
16 14 11 10 8 10 11 10 7 8 7 6 6 7 8 7 7 9 10 10 11 10 11 11 10 9 9 10 10 11 12 12 12 12 13 13 13 13 13 13 13 13 14 14
13 16 17 11 7 6 7 13 6 6 6 8 8 11 8 8 9 10 11 11 12 11 10 10 10 9 10 11 11 12 12 12 12 13 13 14 13 13 13 13 12 12 13 13
15 15 12 8 7 7 14 12 7 6 6 7 8 7 9 9 11 11 11 12 11 10 11 12 10 11 12 12 13 12 11 12 13 12 13 13 12 12 12 12 12 13 13 13
14 16 17 7 8 11 9 7 6 6 6 7 10 11 12 12 13 12 13 12 11 11 12 10 10 11 13 13 12 11 11 12 13 12 12 12 12 12 12 12 13 13 13 13
11 11 8 7 7 7 7 7 6 6 7 8 11 13 12 13 13 13 12 11 11 11 11 10 10 10 12 11 11 11 12 13 12 12 12 12 12 12 12 12 13 13 13 14
10 8 7 7 7 6 7 6 6 6 7 9 12 13 13 13 13 12 11 11 10 11 11 11 11 11 11 11 11 11 11 11 11 12 12 12 12 12 13 13 13 14 14 15
10 8 8 7 6 6 7 7 7 7 8 11 12 12 12 12 12 12 12 11 11 11 11 12 11 11 11 11 11 11 12 12 12 12 13 13 14 13 13 14 14 15 15 15
10 7 6 7 5 6 8 8 8 8 10 10 10 11 11 12 12 12 13 12 12 12 12 12 12 12 11 11 11 11 12 12 12 12 13 13 13 14 15 15 15 16 16 16
7 6 7 7 7 7 8 8 8 9 9 10 10 10 11 12 12 12 12 13 14 14 14 13 14 14 12 11 11 12 12 13 13 13 13 14 14 14 15 15 17 17 17 17
6 7 9 8 9 9 9 9 9 9 9 9 9 10 11 12 13 13 13 14 14 15 15 15 16 16 13 13 14 14 14 14 13 13 13 14 14 14 14 15 16 15 16 17
8 8 8 8 9 10 9 10 11 10 10 10 10 11 11 12 13 13 13 14 14 15 15 16 16 16 14 14 14 14 13 13 13 14 14 14 13 14 14 15 15 15 15 17
8 8 9 9 10 10 10 10 10 11 10 11 11 11 11 12 13 13 13 13 14 15 15 16 15 15 15 14 14 14 14 15 14 14 14 14 14 15 15 16 16 16 17 19
10 10 10 10 10 10 10 9 10 10 10 11 11 11 12 13 14 14 14 14 14 15 15 15 16 16 15 14 13 13 13 14 16 14 15 15 15 16 16 17 17 17 17 20
7 7 8 8 9 9 10 9 10 10 11 11 12 13 14 15 15 16 16 16 17 16 14 15 15 16 15 14 13 13 13 14 15 15 16 16 16 17 17 17 18 19 18 19
7 7 7 8 8 9 9 10 10 10 11 13 14 15 15 15 16 17 17 17 18 17 16 15 15 14 14 14 14 14 14 15 16 16 17 19 18 18 18 18 19 19 19 20
8 8 8 8 8 9 10 10 10 12 13 13 14 15 16 17 17 18 17 16 15 14 15 14 14 14 14 15 15 14 15 15 17 17 18 18 19 19 19 21 21 20 20 21
8 8 9 9 10 9 10 11 12 13 13 14 15 16 16 17 17 17 16 16 16 15 14 15 14 14 15 16 15 15 16 17 17 18 19 19 19 19 20 20 21 21 21 21
9 10 10 10 10 10 10 10 11 12 13 13 14 15 17 17 17 16 15 14 15 16 15 14 14 15 16 17 16 17 18 18 18 18 19 19 19 20 21 21 22 22 22 22
9 9 9 10 10 9 9 10 11 11 12 14 15 16 15 16 15 16 16 14 14 15 14 14 16 18 18 16 17 18 18 19 19 20 20 20 21 21 21 22 22 22 23 23
10 9 9 9 10 10 11 10 10 11 12 12 13 14 14 14 14 13 12 14 15 15 13 16 17 18 17 17 17 18 19 19 20 20 21 25 21 22 22 23 23 23 24 24
10 9 10 10 10 10 10 10 11 11 12 12 13 13 13 13 13 12 13 14 15 14 15 18 19 19 17 17 18 19 19 19 20 20 21 21 22 22 22 22 24 24 25 24
10 9 9 9 9 9 10 11 11 11 11 12 12 12 12 12 11 12 13 14 14 15 16 18 18 17 17 18 19 20 20 22 22 21 22 22 22 22 23 24 24 24 25 25
9 10 9 10 10 10 10 10 11 11 11 12 13 12 12 12 13 13 14 14 15 15 16 16 17 18 18 19 20 20 20 21 22 22 22 22 23 22 24 24 24 24 24 25

GFSNGP_con_lsi_129.txt.gz
Lid_Strength_Index
9 9 11 11 12 11 12 11 16 13 12 9 7 7 7 5 5 6 7 7 7 7 8 9 9 9 9 8 8 8 8 9 9 9 9 9 10 10 10 10 10 11 12 12
12 10 9 11 10 10 10 9 10 10 11 6 5 5 5 6 6 6 6 7 7 7 8 9 9 9 9 9 9 9 10 10 9 9 9 10 10 10 10 11 11 11 11 11
15 10 10 13 11 10 9 9 8 11 8 6 6 6 6 6 6 6 6 7 8 9 9 9 9 9 9 9 9 9 9 9 9 10 10 11 10 11 11 12 12 12 12 11
15 12 20 10 7 7 8 8 7 7 7 6 6 5 4 4 5 6 6 7 9 9 9 10 9 9 9 9 9 9 9 10 10 10 11 10 11 12 12 12 13 13 13 13
16 15 12 10 9 9 10 10 6 7 6 5 5 5 7 4 4 5 6 8 9 9 9 10 10 10 9 9 9 9 11 12 11 11 12 12 13 13 12 12 13 13 13 14
13 17 18 11 7 5 6 13 6 6 6 6 6 10 8 4 5 7 8 9 10 10 10 10 10 10 9 9 10 11 11 11 11 12 12 13 13 13 12 11 12 11 12 12
14 15 12 8 6 5 14 12 6 5 6 6 8 7 5 7 9 9 9 9 10 11 11 11 10 9 10 10 12 11 11 11 11 11 12 11 12 11 11 11 11 11 11 11
13 15 17 6 6 10 7 6 6 6 6 6 7 7 9 10 11 11 11 11 11 11 12 10 9 10 11 12 11 11 11 12 12 12 11 11 11 11 11 11 11 12 12 12
10 11 8 6 6 5 5 6 6 6 5 6 9 10 11 11 11 11 11 11 11 11 10 8 9 9 11 11 11 11 12 13 12 11 11 11 11 11 11 11 12 12 13 13
9 7 7 6 5 4 4 5 4 4 4 7 10 10 11 11 12 12 11 11 10 9 9 9 9 9 10 10 10 10 11 11 11 11 11 11 11 12 13 13 13 13 14 15
9 7 6 6 5 4 5 5 4 4 5 9 9 10 11 12 12 11 10 9 9 9 10 10 10 10 10 10 10 11 11 11 11 11 11 13 14 13 13 15 15 15 15 14
10 7 7 7 4 4 5 5 5 5 7 8 9 10 11 12 11 10 10 9 10 10 10 10 10 11 10 10 10 10 11 11 11 11 12 12 12 14 15 15 15 15 15 15
7 5 5 5 4 4 5 5 5 6 7 9 9 10 11 11 10 11 10 10 11 11 10 10 11 11 11 10 10 10 11 12 12 12 12 12 12 13 13 15 16 16 16 16
5 5 7 6 7 5 5 5 6 6 7 8 9 9 10 10 11 11 12 12 12 12 13 13 14 14 13 12 12 13 12 12 11 12 12 12 13 13 13 14 14 14 16 15
5 5 5 5 6 7 6 7 7 8 9 9 9 9 9 11 11 11 11 12 13 13 14 15 15 15 14 13 13 12 12 12 12 12 12 13 12 13 13 13 14 14 14 15
6 6 6 7 7 8 8 8 8 9 9 9 9 10 10 10 10 11 12 12 14 14 14 16 15 15 14 13 13 12 13 13 12 12 12 13 13 14 14 14 14 15 15 18
7 8 7 8 8 8 8 8 8 9 9 9 9 9 9 10 11 12 12 12 13 14 15 15 16 15 14 12 11 11 12 13 14 13 13 14 14 15 15 15 16 16 16 19
6 6 6 7 8 8 8 7 8 8 9 9 9 10 11 12 12 13 13 13 14 14 14 15 15 15 13 12 11 12 12 13 13 14 14 15 15 15 15 16 17 17 17 18
6 6 5 6 6 7 8 8 8 8 9 10 12 12 12 12 13 13 14 15 15 15 15 15 15 14 13 13 12 12 13 14 14 15 16 17 16 16 17 17 17 17 17 18
6 6 6 7 7 8 9 8 9 10 11 11 12 13 14 14 14 15 15 15 14 13 15 15 14 13 13 14 14 13 13 14 15 15 16 16 16 17 17 20 19 18 18 18
7 7 8 8 8 8 8 9 10 12 12 12 13 14 15 15 15 14 15 14 14 14 14 14 14 14 14 14 14 13 14 15 15 16 17 17 17 17 17 17 17 18 18 19
8 9 9 9 9 9 9 9 9 11 11 12 12 14 15 16 15 14 12 13 14 14 14 13 13 14 15 15 14 14 15 16 16 16 17 17 17 17 18 18 18 19 19 19
9 9 9 9 9 9 9 9 9 10 11 12 13 14 14 15 14 14 15 13 13 13 13 13 15 16 16 14 14 15 16 16 17 17 17 18 18 18 18 19 19 19 20 20
9 9 9 8 9 10 11 10 10 10 10 11 11 12 13 14 13 12 11 13 13 13 12 15 16 16 15 14 15 16 16 16 17 17 18 21 18 19 19 20 20 20 20 21
9 9 9 9 9 9 10 10 10 10 11 11 11 11 11 11 11 11 12 12 13 12 14 16 17 16 14 15 16 16 17 17 17 18 18 19 19 20 19 20 21 21 22 21
8 8 8 8 8 8 9 9 10 10 10 11 11 11 10 11 10 11 12 12 13 13 14 16 16 15 15 15 16 17 17 18 20 19 19 20 20 20 20 21 21 21 21 22
7 8 8 9 8 8 8 9 9 10 10 10 11 11 11 10 10 11 12 13 12 13 15 15 16 15 15 16 17 17 18 18 19 20 20 20 20 19 21 21 21 21 22 23